GFSNE_850_thetae_021.txt.gz
Theta_e
295 295 294 293 293 292 292 291 291 291 290 290 289 289 288 288 288 288 288 288 288 288 287 288 288 289 292 293 294 296 298 300 303 306 310 311 310 310
295 294 293 293 293 292 291 290 290 290 290 289 289 288 287 287 287 287 287 288 287 288 289 287 288 289 290 293 293 294 294 297 300 300 305 308 309 309
294 293 293 292 292 291 290 289 289 289 289 288 288 287 287 287 286 286 286 287 287 288 288 289 288 290 290 292 291 291 292 294 296 297 300 303 307 307
293 293 292 291 290 290 289 289 288 288 287 287 286 286 286 286 285 285 286 286 287 287 288 289 290 290 290 291 290 291 290 291 294 296 298 300 302 306
292 291 291 290 289 288 287 287 286 286 286 285 285 285 285 285 285 285 285 286 286 287 288 289 289 287 287 288 289 290 290 290 292 295 297 300 301 302
291 290 290 288 287 286 284 284 284 284 284 283 283 284 284 284 285 285 285 285 286 287 287 289 289 288 287 287 288 289 290 290 291 294 296 298 300 303
290 289 287 286 285 283 282 282 282 282 282 283 283 283 284 284 285 284 285 285 285 286 287 287 289 288 289 289 289 290 290 289 291 293 296 296 298 301
288 287 286 285 284 283 283 282 281 281 282 282 283 282 282 283 283 284 284 284 284 285 286 286 288 289 289 289 289 289 289 287 289 293 295 296 297 301
286 285 285 284 284 284 283 281 281 282 282 282 282 282 283 282 282 283 283 284 284 284 285 285 286 287 287 288 287 287 287 286 289 293 295 296 298 300
285 285 284 284 283 282 280 280 281 281 282 282 281 281 281 281 280 281 282 283 283 283 284 284 285 285 286 287 287 287 286 286 291 292 294 294 294 293
285 284 283 282 282 279 279 280 280 281 281 280 280 280 280 280 280 281 281 282 282 283 284 285 285 285 286 286 286 286 287 287 291 292 294 292 292 294
285 284 283 282 281 278 277 277 279 280 278 278 279 280 281 282 282 282 282 282 283 283 284 285 286 285 286 286 286 286 287 286 290 291 292 292 291 291
283 283 283 282 279 278 277 278 278 276 277 279 280 281 281 282 283 283 283 283 283 283 283 284 285 285 285 286 288 288 288 288 289 290 292 292 291 293
282 283 282 280 279 279 279 278 277 278 279 279 280 281 281 281 282 282 283 283 283 283 283 283 284 285 285 287 288 287 287 288 288 289 290 291 291 292
282 281 281 281 280 280 279 279 279 279 278 279 279 280 280 281 281 283 284 285 283 283 283 282 283 283 285 285 286 287 287 288 288 288 289 290 291 292
282 282 281 281 281 281 281 281 280 279 278 278 279 279 280 281 281 282 283 284 285 284 284 283 282 283 284 284 285 285 286 287 288 286 288 289 289 289
282 281 282 282 282 282 281 281 280 280 279 278 278 279 279 280 281 281 283 284 285 286 286 285 284 283 283 283 285 285 286 286 287 288 287 288 287 288
282 282 282 282 282 281 281 281 280 280 279 277 278 278 278 279 280 281 282 282 283 284 285 285 285 284 284 284 284 285 286 285 285 286 286 287 287 288
282 282 283 282 282 282 281 281 280 279 278 278 278 278 278 278 279 280 280 281 281 282 283 284 285 286 287 287 287 284 285 287 286 285 285 284 286 287
282 282 283 283 282 282 281 281 280 279 278 277 277 277 277 277 279 279 280 280 280 281 282 283 284 283 283 285 287 285 285 286 286 286 286 286 286 285
283 284 284 283 282 282 281 280 279 278 278 277 277 277 277 277 278 278 279 279 280 281 281 282 282 282 283 285 285 285 285 285 286 286 287 286 286 285
283 283 283 283 283 282 281 280 279 279 278 278 278 277 277 277 278 277 278 278 279 279 279 280 281 282 283 284 286 285 285 285 285 285 285 285 286 287
284 284 283 283 283 282 280 280 279 279 278 278 277 277 276 276 277 277 277 277 278 278 278 280 281 282 283 283 284 285 284 284 284 284 284 284 284 285

GFSNE_850_thetae_024.txt.gz
Theta_e
297 296 295 294 294 293 293 292 291 291 290 290 290 290 289 289 288 288 287 287 287 287 287 286 287 288 289 289 288 291 293 293 295 297 299 302 306 308
296 296 295 294 293 293 292 291 290 290 290 289 289 289 289 288 287 287 287 286 286 285 286 287 287 288 288 288 289 290 292 292 293 294 295 300 304 307
295 295 294 293 292 292 291 290 289 289 288 288 287 287 287 286 285 285 285 285 285 286 287 287 287 288 289 288 289 290 291 291 291 292 294 295 300 303
293 293 293 292 291 290 289 288 288 287 287 286 286 285 285 284 284 284 285 285 285 286 286 287 287 288 289 289 290 290 290 290 290 290 292 294 296 300
292 292 291 291 290 289 288 287 286 284 284 284 284 283 283 283 283 284 285 285 285 285 286 286 287 287 289 289 288 288 289 290 290 290 290 293 296 297
292 291 290 289 288 287 286 285 283 283 282 282 282 282 282 282 283 283 283 284 283 284 285 285 286 287 289 288 287 287 287 289 289 289 290 292 295 296
290 290 289 287 286 285 284 284 283 282 281 281 281 282 282 283 282 282 283 283 283 284 284 284 286 286 288 287 288 289 289 290 289 288 289 292 294 297
289 288 287 286 285 284 284 284 283 282 281 282 282 282 282 282 282 282 281 281 282 283 284 284 284 285 288 288 288 289 288 287 288 287 288 294 294 296
287 287 286 285 285 284 284 283 280 281 281 281 282 282 282 281 281 280 280 280 280 281 282 282 283 284 285 286 287 288 287 287 287 287 289 293 294 296
287 286 285 284 284 283 282 279 279 279 280 281 281 280 280 280 280 280 280 280 281 281 281 283 283 284 284 285 285 286 286 286 286 286 291 293 294 295
286 285 285 284 283 283 281 279 278 278 280 280 279 279 280 280 281 282 282 281 281 281 282 282 283 285 285 284 285 285 285 285 286 288 291 293 294 293
285 284 284 284 283 283 280 279 279 279 278 278 279 280 280 281 282 283 283 282 282 282 282 283 283 284 285 285 286 286 286 285 286 289 291 291 292 294
284 283 283 283 283 281 280 279 280 279 279 279 279 279 280 281 281 281 282 283 283 283 283 283 283 283 284 285 285 287 287 288 287 289 291 292 291 292
284 283 282 282 281 281 281 280 280 279 279 279 278 279 280 280 280 281 282 283 284 284 283 283 283 283 284 284 286 287 287 287 288 288 289 291 291 292
284 283 282 282 281 281 281 281 281 280 279 279 278 278 279 280 280 281 282 283 284 285 283 283 283 282 283 284 284 285 286 288 288 288 289 290 291 292
284 283 283 282 282 282 281 281 281 280 280 279 279 278 279 279 280 280 282 283 284 285 285 284 283 282 283 283 283 284 285 286 288 288 288 290 290 291
285 284 283 282 282 282 281 281 281 280 280 279 279 278 278 278 279 280 281 282 283 284 285 285 284 282 283 283 283 283 284 285 286 288 287 288 289 289
284 283 283 282 283 282 281 281 281 280 280 279 278 278 278 278 278 280 280 281 281 282 283 284 286 285 284 283 283 284 285 285 285 285 287 288 287 287
283 283 282 282 283 282 281 281 281 281 280 278 278 278 278 278 278 279 279 280 280 281 282 283 284 284 284 286 285 285 285 286 286 285 285 286 287 287
283 283 282 282 282 282 282 281 281 280 279 278 278 278 278 277 277 278 278 279 279 280 281 281 282 282 283 285 285 285 284 285 287 286 285 285 285 286
283 283 283 283 284 284 283 282 281 280 279 278 278 278 277 277 277 277 277 278 279 279 279 280 280 281 283 284 285 285 285 285 286 286 286 286 286 286
284 284 283 283 284 284 283 282 281 280 279 279 278 278 277 277 277 277 277 277 278 278 278 279 281 282 284 284 285 285 285 285 285 285 285 286 286 286
285 284 284 284 283 283 283 282 281 280 279 279 278 277 277 277 277 277 277 277 277 277 277 280 280 282 283 283 284 284 284 284 284 285 285 285 285 285

GFSNE_850_thetae_027.txt.gz
Theta_e
296 296 296 296 295 295 294 293 292 291 291 290 289 289 289 289 289 288 288 287 287 285 285 285 285 287 288 289 290 290 290 291 292 292 292 294 296 299
295 294 294 295 294 293 292 292 291 290 289 289 288 288 287 287 287 287 286 285 284 284 285 285 286 286 287 287 287 289 289 289 289 291 291 292 293 294
293 293 293 293 293 292 291 290 290 289 288 287 287 286 285 285 284 284 283 284 284 284 284 285 285 286 286 287 288 289 288 289 289 289 290 291 291 293
293 293 293 292 291 291 290 289 288 287 286 285 284 283 283 283 283 282 282 283 283 284 284 285 285 285 285 286 287 288 289 289 289 290 289 290 290 291
292 292 292 291 290 289 288 287 287 286 284 283 282 282 282 282 282 282 282 282 282 282 283 283 284 284 285 286 287 289 288 288 288 288 289 290 290 290
291 291 290 289 288 288 287 286 285 284 283 282 281 281 281 282 282 282 282 282 282 282 282 284 285 284 285 286 288 288 287 287 287 289 289 289 290 290
291 290 289 288 287 287 285 285 284 284 283 281 281 281 281 281 282 282 282 281 281 280 280 282 283 283 284 284 288 288 288 288 289 288 288 288 289 290
287 287 288 287 286 285 285 284 284 282 280 280 281 281 281 281 281 281 280 279 280 280 280 281 281 282 282 283 286 287 288 287 287 287 287 287 288 290
287 286 286 286 285 285 284 284 282 280 279 279 280 281 281 280 280 280 280 281 281 281 281 281 281 281 282 283 284 285 287 287 287 286 286 286 288 291
287 286 285 285 284 284 284 283 281 280 279 279 280 280 279 279 280 281 281 282 282 282 282 282 282 282 282 284 284 284 284 285 285 285 285 287 290 292
286 285 285 284 284 283 283 283 281 280 280 279 279 279 279 280 281 281 281 282 282 282 282 282 282 282 283 285 285 284 285 285 285 285 286 291 293 293
286 285 284 283 283 283 282 281 280 280 280 280 279 279 280 280 280 280 281 281 282 283 283 283 283 283 283 284 285 285 285 285 285 286 287 291 292 292
286 284 283 283 283 282 281 280 280 280 280 279 279 278 279 279 280 280 281 282 282 283 284 284 283 283 283 283 284 285 287 286 287 288 289 290 291 291
286 285 284 283 282 281 281 281 281 280 280 280 279 279 278 279 279 280 280 281 282 283 285 284 283 283 283 283 284 284 287 287 288 288 289 290 291 291
286 285 284 283 282 282 281 281 281 281 280 280 279 279 278 278 279 279 280 282 283 284 285 285 284 283 283 283 283 284 284 287 288 288 289 289 290 291
286 285 285 284 283 282 282 281 281 281 280 280 279 279 278 278 278 279 280 281 282 284 285 285 284 284 283 282 283 283 283 284 285 288 288 289 290 290
285 285 285 284 283 282 282 282 281 281 281 280 279 279 278 278 278 279 280 280 280 281 283 284 285 285 283 282 283 282 283 284 285 287 287 289 290 290
284 284 284 283 283 282 283 282 281 281 281 280 280 278 278 277 277 278 279 279 279 281 282 283 284 284 285 285 284 283 283 285 285 285 287 288 288 288
285 284 283 283 283 282 282 282 281 281 281 281 279 278 278 277 277 277 277 278 279 280 280 281 282 282 284 285 285 285 284 285 286 285 285 287 287 288
285 284 283 283 283 282 282 282 282 281 281 280 279 278 277 277 277 277 277 277 278 279 279 280 280 281 282 283 284 285 285 284 286 286 285 285 286 287
285 285 284 283 283 283 283 283 283 282 282 281 279 278 278 277 277 277 277 277 277 278 278 278 280 281 282 284 285 285 285 285 286 286 286 285 285 285
286 285 285 284 283 283 283 284 283 283 282 281 280 279 278 277 277 277 277 277 277 277 277 279 281 282 283 284 284 285 285 285 285 285 286 286 286 285
287 286 286 285 284 284 283 283 283 283 283 282 280 279 278 278 277 277 277 277 277 276 276 279 281 282 282 283 284 284 283 284 284 284 285 285 285 285

GFSNE_850_thetae_030.txt.gz
Theta_e
296 295 295 294 294 295 295 294 293 291 291 290 290 289 288 288 287 287 287 287 286 285 284 284 285 286 287 287 288 289 289 290 291 291 292 292 293 294
294 293 293 292 293 294 293 293 291 290 290 289 288 287 286 285 284 283 283 283 283 283 283 284 284 284 286 286 287 287 287 288 290 290 291 291 292 292
294 293 293 293 293 292 292 291 290 289 288 287 286 285 283 283 283 283 282 282 282 282 283 283 284 284 285 285 285 285 286 287 289 289 289 290 290 290
294 293 292 292 292 291 290 290 288 287 286 285 284 283 282 282 282 282 282 282 282 282 282 282 282 283 284 284 284 286 285 287 288 289 289 289 289 290
294 292 292 292 291 290 289 288 287 286 285 284 283 282 281 282 281 281 282 282 282 281 281 281 281 283 284 284 284 284 286 287 288 289 288 288 288 289
292 291 291 290 290 289 287 287 286 284 284 283 282 280 280 281 281 281 281 281 280 280 280 280 280 281 283 283 283 284 287 288 288 287 287 287 289 289
291 289 289 289 288 287 286 285 284 284 283 282 280 279 280 280 280 280 280 280 280 281 281 281 281 281 282 282 282 283 286 288 287 287 288 288 287 287
290 288 287 286 285 286 285 284 284 283 282 280 279 279 280 280 280 280 279 279 281 281 282 282 281 281 281 282 282 283 285 286 287 288 287 287 286 286
291 289 288 286 285 285 284 284 283 282 281 279 279 279 279 279 279 279 280 281 281 282 282 282 282 282 282 282 282 283 285 285 286 285 285 285 285 285
290 289 287 285 285 284 284 283 283 282 281 280 280 279 279 279 279 280 281 281 281 281 282 282 283 282 282 283 285 285 284 284 284 284 285 284 285 286
289 287 286 285 284 284 283 282 282 281 280 280 280 279 278 279 280 280 280 280 280 281 282 283 283 283 283 283 284 284 285 285 285 284 285 285 285 289
288 287 286 284 284 283 282 282 281 281 280 280 280 280 278 278 279 279 280 280 280 281 283 282 283 283 283 282 283 283 285 285 285 285 285 286 288 290
288 287 286 284 283 283 282 281 281 281 280 280 279 279 279 279 278 279 279 280 280 281 282 283 283 283 283 282 282 283 285 286 286 287 287 288 290 290
288 288 286 285 284 282 282 281 281 281 280 280 280 279 279 279 278 278 279 280 281 281 283 284 283 284 283 283 283 283 284 285 287 287 288 289 289 290
288 288 286 285 284 283 283 282 281 281 280 280 280 280 279 278 278 278 279 280 281 282 284 284 284 284 283 283 283 283 283 284 284 287 289 288 289 290
289 287 286 285 285 284 283 282 282 281 280 281 280 280 279 278 278 278 279 280 280 282 283 283 284 285 284 283 282 282 283 283 284 285 287 288 289 290
288 287 286 285 284 284 283 282 282 281 281 281 280 280 279 278 278 278 278 279 279 280 282 283 284 284 284 284 283 282 282 283 284 285 288 288 289 289
288 287 286 285 284 283 283 283 282 282 281 281 281 280 279 278 278 278 277 278 279 280 280 281 282 283 284 284 284 283 283 284 285 285 287 288 288 288
287 287 286 285 284 283 283 283 282 282 281 281 281 280 278 278 277 277 277 277 278 278 279 279 280 281 283 284 284 284 284 284 285 285 286 287 288 288
287 287 286 286 285 284 283 282 282 282 282 282 281 281 279 278 278 277 277 277 277 277 278 278 279 280 281 282 283 285 285 284 285 286 285 285 286 287
287 288 287 286 285 284 283 282 282 282 282 282 282 281 280 278 278 277 277 277 277 277 276 279 280 281 282 283 284 284 284 285 285 285 286 285 285 285
287 287 287 286 286 285 283 283 283 283 283 283 282 282 280 279 278 277 277 277 277 277 276 279 281 283 283 284 284 284 284 284 285 285 286 285 285 285
286 287 287 287 286 286 284 283 283 283 283 283 283 282 281 280 278 278 277 277 277 277 276 278 280 281 282 283 283 283 283 284 284 284 285 285 285 285

GFSNE_850_thetae_033.txt.gz
Theta_e
295 295 294 293 293 293 292 294 293 292 291 290 290 289 288 287 286 284 284 283 283 283 283 283 285 285 286 286 287 288 288 289 289 290 290 291 292 292
294 293 294 293 293 292 292 292 292 292 290 290 289 287 286 285 283 282 282 282 282 282 282 283 283 284 285 285 285 286 287 287 288 288 290 291 292 292
294 294 293 293 292 291 291 291 290 290 289 288 287 286 284 283 282 282 282 282 282 282 282 282 282 282 282 282 283 284 285 285 286 287 287 290 291 291
294 293 293 292 292 291 291 290 289 288 286 286 286 284 283 282 280 281 282 282 281 281 281 281 280 281 281 281 283 284 284 284 284 285 286 288 290 290
293 292 292 292 290 291 290 289 287 287 286 284 284 283 282 281 280 280 281 281 281 280 280 280 280 280 281 281 283 284 284 283 284 286 287 288 288 289
292 292 292 289 289 289 288 287 286 285 284 284 283 282 281 280 280 280 281 280 279 280 281 281 282 281 281 281 281 283 283 283 283 286 287 288 288 288
292 291 290 288 287 286 285 285 285 284 284 283 282 281 280 279 279 279 279 279 280 281 281 282 282 282 282 281 281 282 282 282 284 286 287 288 288 287
292 291 290 289 289 287 285 284 284 284 283 282 281 280 279 279 279 279 279 280 280 281 281 281 282 283 282 282 282 282 282 282 284 286 287 288 287 287
291 291 290 289 288 286 285 284 284 283 283 282 280 280 280 279 278 278 279 280 281 280 280 281 282 283 283 283 282 284 284 283 284 286 286 286 285 286
291 290 290 288 286 285 284 284 283 283 282 280 280 280 279 279 278 279 279 280 280 280 280 281 283 283 283 283 282 284 284 285 284 285 285 284 284 285
291 290 289 287 286 284 284 283 283 282 281 280 280 280 279 279 279 278 279 279 279 280 281 281 282 283 283 283 283 284 282 284 285 284 284 284 284 284
290 289 288 287 287 285 283 283 282 281 281 280 280 280 279 279 279 278 278 279 279 280 281 281 282 282 283 283 282 282 282 284 285 286 284 285 285 285
290 290 288 288 287 285 284 283 282 281 281 280 280 279 279 279 279 278 278 278 279 279 281 281 282 283 283 283 282 282 283 285 285 286 286 286 287 288
290 290 288 288 288 286 284 283 282 281 281 280 280 280 280 279 279 278 278 278 279 280 280 282 283 283 283 283 283 283 283 283 284 284 287 288 288 289
290 289 289 288 288 286 285 284 283 282 281 281 280 280 280 279 279 278 278 278 279 280 280 282 283 284 284 284 283 283 282 283 283 284 287 288 288 289
288 289 289 288 288 286 285 284 284 282 281 281 281 280 280 279 279 278 278 278 278 279 280 282 282 283 284 284 283 282 282 282 283 284 287 287 288 289
289 288 288 288 287 286 286 285 284 283 282 281 281 280 280 280 278 278 278 278 277 278 280 281 282 282 284 284 284 283 283 283 285 285 287 288 288 289
288 288 288 288 287 287 286 284 283 283 282 282 281 281 280 280 278 278 278 277 277 278 278 279 280 282 283 284 283 284 283 284 285 285 287 288 288 288
288 288 288 288 287 287 285 284 283 283 282 282 281 281 281 280 278 278 278 278 277 277 277 277 278 279 281 282 283 283 284 284 285 285 286 287 287 287
287 287 287 287 287 287 286 285 283 283 282 282 282 281 281 281 280 278 278 278 277 277 277 277 279 280 281 281 282 284 284 284 285 285 285 285 286 286
287 286 286 287 287 286 286 285 284 282 282 282 282 282 281 281 280 278 278 278 277 277 276 278 280 281 282 283 283 283 284 285 285 285 285 285 285 285
286 286 286 286 286 287 286 286 285 283 282 282 282 283 282 281 280 279 278 278 277 277 277 277 280 282 283 283 284 284 284 284 284 285 285 285 285 285
286 286 286 286 286 287 287 286 285 284 283 283 283 283 282 282 281 279 278 278 278 277 277 276 279 281 282 283 283 283 283 283 284 284 285 285 285 285

GFSNE_850_thetae_036.txt.gz
Theta_e
293 294 293 293 293 293 292 293 293 292 291 291 290 290 288 287 286 285 284 283 283 282 283 283 283 284 285 285 286 287 287 287 288 289 290 290 291 292
293 293 294 293 292 293 292 292 291 291 291 290 289 288 286 285 284 283 282 282 282 282 282 282 282 283 283 284 284 284 285 286 287 287 288 289 289 290
293 292 293 292 292 292 291 291 291 290 290 289 288 286 285 284 283 282 281 281 281 282 281 281 281 281 281 281 282 282 283 285 286 286 287 287 288 289
294 293 292 292 291 292 290 289 289 289 288 287 286 285 284 283 282 281 281 281 281 281 280 280 280 280 280 281 281 281 281 284 285 285 285 284 286 287
294 293 292 291 291 289 288 289 288 288 286 286 284 284 283 282 281 281 281 281 281 280 280 280 281 282 282 281 281 281 281 282 283 283 284 283 284 287
293 293 292 291 290 289 288 287 286 286 285 284 284 283 282 281 280 280 281 280 279 280 281 281 281 281 282 282 282 282 281 281 282 283 283 284 284 287
293 293 292 291 290 289 287 287 285 284 284 283 283 282 282 280 280 280 279 279 280 281 281 281 281 282 283 283 282 282 281 281 282 282 282 283 285 287
293 292 292 291 290 289 288 287 285 284 284 283 283 282 281 280 280 279 279 279 279 280 280 281 281 282 283 283 283 282 282 283 282 282 282 283 286 287
293 292 291 291 290 289 287 285 284 284 283 283 282 281 280 280 279 279 278 278 279 279 279 280 281 282 283 283 283 283 282 284 284 284 284 284 286 287
292 292 291 290 290 288 286 285 284 284 283 282 281 280 280 280 279 279 279 278 278 279 279 280 281 282 283 283 283 282 283 283 282 283 284 284 285 285
292 291 291 290 289 288 286 285 284 283 283 281 280 280 280 279 279 279 279 278 278 278 280 280 280 282 283 283 283 283 283 282 282 284 284 285 284 284
291 291 291 290 289 288 287 286 284 283 282 281 280 280 280 279 279 279 278 278 278 277 279 279 280 281 281 283 283 283 282 282 284 284 285 286 285 284
290 289 290 290 289 288 287 287 286 283 282 281 281 280 280 280 279 279 279 278 278 278 279 279 280 281 281 282 283 284 283 283 283 284 285 286 286 286
290 290 289 289 290 288 288 287 286 284 283 282 281 281 280 280 280 279 279 278 278 278 279 279 280 281 281 282 283 284 283 282 282 284 285 286 287 287
288 288 288 288 288 289 288 288 286 285 283 283 281 281 280 280 280 279 278 278 279 278 278 280 280 281 282 282 283 284 283 282 282 284 285 287 287 288
287 287 287 288 288 288 288 287 286 285 284 283 282 281 281 280 280 280 278 278 279 279 278 279 280 280 281 283 284 284 283 283 283 285 286 287 287 288
288 287 287 287 288 288 287 286 287 286 284 283 283 281 281 280 280 279 278 278 278 278 279 278 279 280 281 282 283 283 283 283 285 285 287 287 287 288
288 287 287 287 288 288 288 287 287 286 285 284 283 282 281 281 280 280 278 278 278 278 278 277 277 278 281 282 283 283 284 284 285 285 286 287 287 288
287 287 287 286 287 287 287 288 287 286 285 283 283 282 281 281 280 280 279 278 278 278 278 277 278 279 280 281 282 283 283 284 285 285 285 286 287 287
287 286 287 287 287 286 286 287 286 286 284 283 282 282 281 281 281 280 279 278 278 278 278 277 279 280 280 281 281 283 283 284 285 285 285 285 286 286
286 285 286 286 286 286 286 286 286 286 285 284 282 282 281 281 281 281 280 278 278 277 278 277 279 281 282 282 283 283 283 283 284 285 285 284 285 285
286 286 286 286 286 286 286 286 286 286 285 284 283 282 282 282 281 281 280 278 278 277 278 277 278 281 282 282 282 283 283 283 283 284 285 285 285 285
283 284 285 285 285 285 285 285 285 286 286 285 283 282 282 282 282 281 281 279 278 278 278 278 277 280 281 282 283 283 283 283 283 283 284 284 284 285

GFSNE_850_thetae_039.txt.gz
Theta_e
295 293 292 293 293 292 293 293 294 294 293 292 291 290 289 288 287 286 285 284 284 283 282 282 282 282 283 284 285 286 286 287 287 288 289 289 290 291
293 292 292 293 293 292 292 292 292 291 292 291 290 289 288 287 285 284 284 283 282 282 282 282 282 282 282 283 284 284 284 285 285 286 287 288 289 290
294 294 293 293 293 291 291 292 292 291 290 290 289 288 286 285 284 283 282 282 282 282 282 281 282 281 281 281 280 281 282 283 284 284 286 287 288 288
294 294 293 293 292 291 291 291 290 290 289 289 288 286 285 284 283 282 281 281 281 281 281 281 281 280 281 281 282 282 282 283 283 283 285 285 286 286
294 294 294 293 292 292 290 289 289 288 288 287 286 285 284 283 282 281 281 281 281 281 281 281 281 281 281 281 282 282 282 282 282 282 283 283 284 285
295 294 293 293 292 291 290 289 289 288 287 286 285 284 284 283 282 281 281 281 281 281 281 281 281 281 281 282 282 283 283 282 282 282 283 283 283 283
295 294 293 293 292 291 290 290 288 287 286 285 285 284 284 283 281 281 281 281 281 281 281 282 282 282 282 282 283 283 283 283 282 282 283 282 282 282
294 293 293 293 292 291 290 289 289 287 285 285 284 284 283 282 280 281 281 281 281 281 281 281 282 282 282 283 283 283 283 283 282 283 285 284 284 284
292 292 293 293 292 291 290 290 289 286 285 284 284 283 283 281 280 280 281 281 281 281 280 281 281 282 283 283 283 283 283 283 282 283 283 282 283 284
290 292 292 292 292 291 290 289 288 286 285 284 283 283 281 280 280 280 280 280 280 280 280 280 281 282 282 283 283 283 283 282 283 283 283 283 284 284
289 290 292 291 291 291 290 289 288 287 286 284 283 282 281 280 280 280 280 280 280 280 280 280 281 281 282 283 284 283 284 283 283 282 282 284 285 285
288 288 291 291 290 290 290 289 288 287 286 284 283 282 281 280 280 280 280 280 280 280 280 280 280 281 281 283 284 284 284 284 283 283 283 284 285 285
289 288 288 291 290 289 289 289 289 288 286 285 283 282 281 281 281 281 280 280 279 280 280 279 279 279 280 281 283 283 284 283 284 283 283 284 285 286
289 288 288 288 289 289 289 289 289 288 286 285 284 283 282 281 281 281 280 279 279 278 279 278 278 279 280 281 282 283 283 284 284 283 283 284 286 287
289 288 289 288 287 288 288 288 288 287 286 285 285 284 283 281 281 280 280 280 278 279 279 278 278 279 279 280 282 282 283 283 283 283 284 287 286 286
290 289 289 288 287 287 287 288 288 287 286 286 285 284 283 282 281 280 280 279 278 279 279 278 278 278 279 280 281 282 283 283 283 284 285 287 286 287
287 288 288 288 288 287 286 287 287 287 285 285 285 285 283 282 281 281 281 279 278 279 279 279 278 277 278 279 281 282 283 283 283 284 286 286 286 287
286 286 287 288 287 287 286 287 287 287 286 286 285 285 284 283 282 281 281 280 279 279 279 279 278 279 280 281 281 282 282 282 284 285 285 286 286 287
284 287 287 287 287 286 286 285 286 286 287 286 285 285 284 283 282 281 280 280 279 278 279 278 278 279 280 282 282 282 283 283 284 285 285 286 286 286
285 285 285 286 286 286 285 286 286 286 286 286 285 285 284 283 282 281 281 280 279 278 278 279 278 279 279 280 280 283 283 283 284 285 284 285 285 286
282 283 285 285 285 285 285 286 286 286 286 285 285 285 283 282 282 281 281 280 279 278 278 279 278 280 281 281 282 282 283 283 283 284 285 285 285 285
279 280 282 284 285 285 285 285 285 285 285 285 285 285 284 282 282 282 281 281 279 278 278 278 277 280 281 281 282 283 283 283 283 283 284 285 285 285
278 279 280 279 281 282 283 284 285 285 284 284 284 285 284 282 282 282 281 281 280 278 278 278 277 279 281 282 282 283 282 283 283 283 283 283 284 284

GFSNE_850_thetae_042.txt.gz
Theta_e
300 299 299 298 297 297 296 296 296 296 296 295 294 293 292 292 291 289 287 287 285 284 283 283 283 282 282 282 284 285 286 286 287 288 288 288 289 290
300 299 298 297 296 296 296 295 295 295 295 294 293 292 292 291 290 287 287 286 284 283 283 282 282 282 282 282 283 284 284 284 284 285 286 287 287 288
299 297 296 296 296 296 295 295 294 294 294 293 292 291 291 290 288 287 287 285 284 283 283 282 282 282 282 281 281 281 282 283 284 284 285 285 286 287
298 297 297 296 296 295 295 294 294 293 293 292 292 291 290 289 287 287 286 285 284 284 283 282 282 282 281 281 282 282 282 282 282 283 284 284 285 286
298 297 297 296 296 295 294 294 293 292 292 291 291 290 289 288 287 286 285 284 284 283 283 282 282 282 282 281 281 282 282 283 283 283 282 283 283 284
297 296 296 296 296 295 294 294 293 292 291 291 290 289 288 287 286 286 285 284 284 284 284 284 283 283 283 283 282 282 283 283 283 283 283 282 282 283
297 296 296 296 295 294 293 293 292 292 291 290 289 288 288 287 286 286 284 284 284 284 284 284 284 284 284 284 284 284 284 283 283 283 283 283 283 284
295 295 295 295 294 293 293 292 291 291 291 290 289 288 287 287 286 285 284 284 284 284 284 283 283 284 284 285 284 284 283 283 283 283 283 283 284 285
294 294 294 293 293 293 293 293 291 291 290 289 288 287 287 286 285 283 283 284 284 283 283 283 283 283 284 285 284 284 283 283 283 283 282 283 283 283
292 292 293 293 293 293 292 292 291 290 289 289 287 287 286 285 284 283 283 283 283 283 283 283 283 283 284 284 284 284 284 284 284 283 283 283 283 283
291 291 291 292 292 292 292 292 291 290 290 289 288 286 285 284 282 282 283 283 283 283 283 283 283 283 283 284 285 285 284 284 284 284 284 283 283 283
291 291 291 290 289 289 291 291 291 290 290 289 287 287 286 284 283 281 282 283 283 283 283 282 282 282 282 283 284 284 285 285 285 285 285 285 284 284
291 291 291 291 290 289 289 291 290 290 289 289 287 287 286 284 284 283 283 283 283 283 282 281 282 282 282 282 282 283 284 285 285 286 286 286 285 285
290 290 290 290 290 288 288 288 289 289 289 288 287 286 286 285 285 284 283 283 283 282 282 281 281 281 281 281 282 283 283 285 285 285 286 285 286 286
287 287 288 289 289 288 288 288 288 288 288 287 286 286 286 285 285 284 283 282 282 282 281 281 281 281 281 281 282 282 283 284 284 285 285 285 287 286
285 285 286 286 287 288 288 288 288 287 287 287 286 286 285 285 284 284 283 283 282 282 282 281 281 281 281 281 281 282 283 284 285 285 285 286 286 286
282 282 283 285 287 287 287 288 287 287 287 287 286 286 285 285 284 284 283 283 282 282 282 282 282 281 281 281 281 282 283 285 284 284 285 286 286 285
282 284 284 284 285 287 288 287 286 286 286 286 286 286 285 284 284 284 283 283 283 282 282 282 282 282 282 283 283 283 283 283 284 284 285 286 286 286
283 284 285 286 286 288 287 287 286 286 286 285 285 285 285 285 284 284 283 282 282 282 282 282 282 281 282 283 283 283 282 283 284 285 285 285 286 286
279 279 280 281 284 286 286 286 285 285 285 286 286 285 285 285 284 283 283 283 283 282 282 281 282 281 282 282 281 282 283 283 284 284 285 285 286 285
276 277 277 279 280 283 286 286 286 286 285 285 285 285 285 285 284 283 283 283 282 282 281 281 282 280 280 281 282 283 284 283 283 284 284 285 286 285
274 274 275 276 279 280 281 284 284 285 285 285 285 284 284 284 284 283 283 282 281 281 281 281 281 280 281 282 283 284 284 283 283 283 283 284 284 284
272 272 272 274 275 278 280 280 281 283 284 284 284 284 284 284 284 283 282 282 282 282 280 281 281 280 281 282 282 283 283 283 283 283 283 283 283 283

GFSNE_850_thetae_045.txt.gz
Theta_e
302 302 302 302 301 301 300 299 298 298 298 298 297 296 295 295 294 293 292 291 289 288 286 285 284 283 282 282 282 283 285 286 286 287 287 287 288 289
301 301 301 302 300 299 299 298 297 297 297 296 296 295 294 294 293 292 291 289 288 288 286 285 284 283 282 282 282 282 283 284 285 285 286 286 287 287
300 301 300 299 299 298 298 298 297 296 296 295 295 295 294 293 293 292 291 289 288 287 286 285 284 283 282 283 282 282 282 283 284 284 285 285 286 287
301 301 299 299 298 298 298 297 296 296 295 295 294 294 293 293 292 291 290 289 288 287 286 285 284 283 283 283 283 283 282 282 282 283 284 284 285 285
301 300 299 299 298 298 297 297 296 295 295 294 294 293 293 292 291 290 289 289 288 286 285 285 284 284 284 284 284 284 283 282 282 283 283 284 284 284
300 299 298 298 298 297 297 297 296 295 295 294 293 293 292 291 290 289 289 288 288 286 286 286 285 285 285 285 285 285 285 285 285 284 283 284 284 284
299 299 298 297 298 297 297 296 295 294 294 294 293 292 292 291 290 289 289 288 287 286 286 286 286 285 285 285 285 286 285 285 284 283 283 283 284 284
298 297 297 296 296 295 295 294 294 294 293 293 293 292 291 291 290 289 288 288 286 286 286 286 285 285 285 285 285 285 285 284 284 283 284 284 283 283
297 295 295 294 294 294 294 294 294 293 293 293 292 291 291 290 289 289 288 287 285 285 285 285 285 285 285 285 285 285 285 284 284 284 284 284 283 283
294 294 294 293 293 293 293 294 294 293 293 292 292 291 290 290 289 288 287 285 285 285 285 285 285 284 285 284 284 284 284 285 285 284 285 285 284 284
293 293 293 293 293 292 292 292 292 292 292 292 291 290 290 289 288 287 286 284 284 285 285 285 285 284 284 284 284 284 285 284 285 285 285 285 285 286
292 292 292 292 292 292 291 291 290 290 291 291 291 290 290 289 288 287 285 283 284 284 285 285 284 283 283 283 284 283 284 283 283 285 285 286 286 286
289 289 289 290 291 291 291 291 290 289 288 290 291 290 289 288 287 286 286 284 284 284 285 284 284 283 283 283 283 283 283 283 283 285 285 286 286 285
285 285 286 287 288 287 287 289 290 289 288 288 289 289 289 288 288 286 285 285 285 285 284 284 283 282 282 282 283 283 282 283 284 284 285 285 285 286
281 281 281 281 281 284 285 286 287 288 288 288 288 288 288 288 287 287 286 286 285 284 284 283 283 282 282 282 282 282 283 282 283 285 285 285 286 287
280 280 280 282 282 284 285 285 287 287 288 288 288 287 287 288 287 286 286 285 284 284 284 284 283 282 282 282 282 282 282 283 284 285 284 285 286 287
279 280 283 285 286 286 285 286 287 287 288 287 287 287 287 287 287 286 285 285 284 284 284 284 283 283 283 283 282 282 283 284 284 284 284 286 287 286
279 282 282 283 283 284 285 287 288 288 287 287 287 287 287 287 287 286 285 285 284 284 284 284 283 283 283 283 283 284 284 284 283 284 285 285 287 286
280 280 280 280 280 281 282 283 284 288 287 286 286 286 287 287 286 286 285 285 284 284 284 284 283 283 283 283 284 284 283 283 283 284 285 285 286 286
278 278 278 278 278 278 279 280 284 286 287 286 286 286 286 286 286 286 285 285 284 284 284 284 283 283 283 283 282 282 283 283 283 284 284 285 286 285
277 277 276 276 276 276 277 278 281 282 285 286 286 285 285 286 286 286 285 285 284 284 283 283 283 283 282 281 282 283 285 284 283 283 284 284 285 285
274 274 274 274 274 274 275 276 278 281 282 284 285 285 285 285 285 285 285 284 284 283 283 283 283 282 281 282 283 284 285 284 283 283 283 283 284 284
272 272 272 272 272 272 273 274 275 278 280 281 282 284 285 284 284 285 285 284 284 283 283 283 282 282 282 282 283 283 284 284 284 284 284 283 283 283

GFSNE_850_thetae_051.txt.gz
Theta_e
313 312 310 305 305 303 304 304 303 302 301 301 300 299 298 298 297 296 295 294 294 293 293 292 292 291 289 288 287 285 284 285 284 286 286 287 287 287
311 309 304 304 302 305 305 303 301 300 299 299 299 298 297 296 296 296 295 295 294 294 293 292 292 291 289 287 285 285 285 284 284 285 285 286 287 287
308 303 302 302 304 303 302 302 301 300 299 299 298 298 297 296 296 295 295 294 294 293 293 292 291 290 288 286 285 285 285 285 284 285 284 284 285 286
306 304 302 304 302 300 300 300 300 299 299 298 298 298 297 296 296 295 294 294 293 293 292 291 290 289 288 286 286 286 285 285 285 285 285 285 284 285
304 302 303 301 299 300 299 299 298 298 299 298 298 298 297 297 296 295 295 294 293 292 292 291 289 289 288 287 286 286 285 285 285 285 285 285 285 284
301 301 301 299 299 298 298 298 298 297 297 297 297 296 297 296 296 295 295 294 293 292 291 290 289 288 288 287 286 286 285 285 285 285 285 285 285 284
300 300 299 298 298 297 297 296 296 296 295 295 295 295 294 294 294 294 294 293 293 292 290 289 289 289 288 287 286 286 285 285 285 285 284 284 284 284
299 299 298 298 294 293 294 294 294 294 294 294 294 294 294 294 293 294 293 293 291 291 290 290 289 289 288 287 285 285 285 285 285 284 283 284 284 284
298 297 295 293 294 294 293 293 293 293 293 293 292 292 292 292 292 292 292 293 292 292 290 289 289 289 288 286 285 285 285 284 284 284 284 284 284 285
294 292 293 293 292 291 291 291 291 291 291 292 292 291 291 291 291 291 290 291 292 291 290 289 289 288 288 285 285 285 284 284 283 283 283 283 283 283
291 291 291 290 288 286 285 284 284 284 283 283 283 284 286 290 290 291 290 290 290 290 290 288 289 288 288 285 285 285 284 283 283 283 282 282 282 283
291 289 286 285 284 283 282 282 282 283 283 282 281 281 282 282 283 285 290 290 290 289 289 287 288 287 285 284 284 284 284 283 282 282 282 283 283 284
287 285 284 283 282 282 281 282 284 285 285 285 285 285 284 284 284 287 288 289 289 289 289 288 287 285 284 285 284 284 283 282 281 281 282 282 283 284
284 284 283 282 281 281 281 282 283 284 285 286 286 286 286 286 286 286 288 288 288 289 288 286 285 285 284 284 284 284 282 282 282 282 283 283 284 284
282 282 281 281 280 281 281 280 280 281 282 283 284 284 285 287 287 287 287 288 288 288 287 287 285 285 285 284 284 283 282 282 282 283 283 283 284 285
282 281 280 280 280 280 280 279 279 279 280 281 282 284 284 286 287 287 287 287 287 287 286 287 286 285 285 284 283 283 282 282 283 283 284 283 284 285
280 280 280 280 279 279 278 278 278 278 279 280 281 283 285 287 287 287 287 286 287 286 287 286 286 285 284 283 283 283 282 283 283 283 283 283 284 285
279 279 279 278 278 277 277 277 276 276 277 279 280 281 283 286 286 286 286 286 286 286 286 286 285 285 283 284 283 283 282 283 283 283 283 283 284 285
278 278 277 277 276 276 275 275 275 275 275 276 278 280 281 283 286 286 286 286 286 286 286 286 285 284 284 284 283 282 283 283 281 283 283 283 284 285
277 276 276 275 275 274 274 273 274 274 274 275 276 278 280 280 284 286 286 286 286 286 286 286 285 284 284 284 283 283 282 282 284 284 283 283 285 284
275 275 274 274 273 272 272 272 272 273 273 273 274 276 277 280 280 284 285 285 285 286 286 286 285 283 283 283 283 282 282 283 283 283 283 283 283 284
274 273 273 272 272 271 271 271 272 271 272 272 273 274 275 277 279 280 283 284 284 285 285 286 285 284 283 283 282 281 282 282 284 284 283 283 283 283
273 272 271 271 271 271 271 270 270 270 271 271 272 273 274 276 277 279 280 283 283 284 285 285 284 283 283 282 282 281 282 282 283 284 284 284 283 283

GFSNE_850_thetae_054.txt.gz
Theta_e
319 318 314 313 311 309 307 305 303 304 303 304 302 301 301 300 299 298 297 296 296 295 294 294 293 293 293 292 290 288 286 286 286 287 287 287 287 288
318 314 311 312 311 305 304 303 304 303 301 301 300 299 299 299 299 298 297 296 295 295 295 294 294 293 292 291 290 289 287 287 286 286 286 287 287 287
316 312 310 309 305 303 303 304 303 302 302 300 300 300 299 298 297 297 297 296 296 295 294 294 294 293 292 291 290 289 288 287 285 285 286 286 286 287
314 311 308 306 304 303 301 300 300 299 299 299 299 299 298 298 297 297 297 297 296 296 295 294 293 292 291 290 290 289 288 287 285 285 285 285 285 286
311 308 306 303 302 302 299 299 299 298 298 298 297 297 297 297 296 295 295 296 296 295 295 294 293 292 291 290 289 288 287 287 286 285 285 285 285 285
308 306 303 301 302 299 298 298 297 297 296 296 295 295 295 295 295 294 294 294 294 294 294 294 293 292 290 289 288 288 288 286 286 285 285 285 285 285
305 302 300 300 299 298 297 296 295 295 294 294 294 293 293 293 293 293 292 292 293 293 293 293 293 291 290 289 288 288 287 286 285 284 285 284 284 284
302 300 300 298 297 297 294 293 293 293 293 293 293 293 293 292 292 291 291 291 291 291 290 291 292 290 289 289 288 288 286 285 285 285 284 284 284 283
300 299 297 297 297 294 292 292 292 292 292 292 291 291 290 289 289 290 290 290 290 290 290 290 291 291 290 289 288 287 285 285 285 284 284 283 283 283
298 297 297 295 292 291 290 289 287 285 284 284 283 283 283 282 281 281 283 285 288 289 290 290 290 291 289 287 287 287 285 285 285 284 284 283 283 283
296 294 292 291 291 289 285 284 285 284 283 283 284 284 285 284 285 283 283 286 286 286 288 289 289 289 288 287 287 288 285 285 284 283 283 282 282 282
293 292 291 289 285 284 284 283 283 283 283 283 283 283 285 285 285 286 286 284 286 288 287 288 289 288 288 287 287 285 284 284 284 283 281 281 282 282
292 289 286 284 284 283 283 282 282 282 282 281 282 281 282 285 286 286 286 286 286 287 288 288 288 288 287 286 284 284 284 284 282 281 281 281 282 283
287 285 283 283 283 282 282 281 281 281 280 280 280 281 281 282 285 285 286 287 287 287 288 288 288 287 286 285 284 284 284 282 282 282 282 283 283 283
283 282 282 282 281 281 281 280 279 279 279 279 279 280 281 282 283 285 286 287 287 287 287 287 288 287 285 284 284 284 283 282 282 282 283 283 283 283
282 281 281 280 280 280 279 279 278 278 278 278 278 279 280 282 284 286 287 286 287 286 286 287 287 286 286 285 285 284 283 283 282 282 283 283 283 283
281 280 280 280 279 279 278 278 277 277 277 277 277 277 279 281 282 285 286 287 286 286 286 286 286 286 285 285 284 283 283 283 282 283 282 283 283 284
280 279 279 279 278 277 277 277 276 276 275 276 276 276 278 280 281 283 285 286 286 286 286 286 286 286 285 285 284 283 283 282 282 282 281 282 283 284
279 278 277 277 277 276 275 275 274 274 273 274 274 275 276 278 280 281 282 285 286 286 286 286 286 286 285 285 284 283 283 282 283 282 283 283 283 284
277 277 276 276 275 275 274 273 273 273 273 273 273 274 275 275 278 280 280 282 285 285 285 286 286 285 285 285 283 283 283 282 282 282 284 283 283 284
276 276 275 274 274 273 273 272 272 272 272 272 272 273 273 274 276 278 279 279 283 285 285 285 286 286 285 283 283 283 283 282 282 283 283 283 283 283
274 274 273 273 272 272 272 271 271 271 271 271 271 272 273 273 274 276 277 279 280 282 284 284 284 285 284 283 283 283 281 282 282 283 284 283 283 282
273 272 272 271 271 270 270 270 270 270 271 270 271 271 272 273 273 274 276 277 278 281 283 284 284 285 284 283 283 282 281 282 282 283 284 284 283 283

GFSNE_850_thetae_060.txt.gz
Theta_e
321 321 321 321 321 318 318 317 315 311 309 309 309 308 306 306 305 302 300 300 299 298 297 297 297 296 296 296 296 296 295 295 295 294 293 292 290 290
321 321 320 321 319 318 317 316 312 311 309 307 306 307 305 304 301 300 299 299 298 298 297 297 297 297 297 296 295 295 295 295 295 294 293 292 291 290
321 320 321 318 318 318 316 313 311 309 306 305 304 304 301 300 299 297 297 297 296 295 295 295 295 295 296 296 296 296 295 295 294 293 292 291 291 290
320 320 321 319 319 316 313 311 309 307 305 303 302 301 301 299 297 296 295 293 293 292 292 292 292 292 293 293 293 293 293 294 294 294 292 291 290 289
320 320 319 318 317 313 311 307 306 304 303 301 300 299 296 294 293 292 291 290 289 288 288 287 287 287 289 290 291 291 291 292 293 293 293 291 289 288
321 319 318 316 313 310 308 305 303 303 302 300 297 294 293 291 290 289 288 288 288 288 287 286 286 285 285 285 287 289 289 290 291 291 292 290 288 288
319 319 316 311 308 306 304 303 302 302 300 297 294 292 291 290 288 287 286 286 286 287 286 286 285 285 284 283 285 289 289 289 290 291 292 290 289 286
319 315 310 307 306 304 302 301 300 299 297 294 292 291 289 286 285 285 285 285 284 286 285 285 284 285 285 285 283 285 286 289 289 290 290 289 287 285
313 310 308 305 303 302 300 300 298 296 294 292 291 287 285 285 285 284 284 284 284 284 284 284 284 285 285 284 284 285 288 289 288 289 289 287 286 285
309 307 305 303 301 300 299 297 296 294 291 289 285 285 284 284 283 283 283 282 283 283 283 284 285 285 285 286 286 288 288 288 288 288 288 286 286 285
305 303 301 300 299 298 297 296 293 290 287 284 284 284 283 283 282 281 281 281 282 282 282 284 284 285 285 285 286 287 288 288 288 287 286 286 285 284
302 300 299 298 297 296 293 291 288 285 284 284 283 283 283 282 281 281 281 281 281 281 283 283 284 285 285 286 286 287 287 288 287 285 286 284 284 284
299 298 297 295 293 292 290 285 284 284 283 283 282 282 282 281 281 280 280 280 281 281 282 283 284 284 285 285 286 286 286 286 286 285 284 284 283 282
296 295 294 292 291 286 283 283 283 282 282 281 281 281 280 280 280 279 279 279 280 281 282 284 284 285 285 285 285 285 286 285 284 284 284 282 282 281
294 292 291 288 284 282 282 283 281 281 281 280 280 279 279 279 278 278 278 278 279 280 283 285 285 286 285 285 285 286 285 284 284 284 282 282 282 282
291 289 284 282 281 282 283 281 280 280 279 279 278 278 278 278 277 277 277 278 279 280 281 285 285 286 285 285 285 285 285 284 284 283 282 282 282 282
285 282 283 283 283 280 280 279 279 279 278 278 278 277 277 276 276 276 276 277 277 279 280 282 285 285 285 285 285 285 285 284 284 283 283 282 282 282
285 283 282 280 279 279 279 278 278 278 277 276 276 275 275 275 275 275 275 275 276 277 280 281 283 284 285 285 285 285 285 285 284 283 283 282 282 282
285 281 279 280 280 278 278 278 277 276 275 275 274 274 273 273 274 274 274 274 275 276 279 280 282 283 284 285 285 285 285 284 284 283 282 282 282 283
281 280 279 278 277 277 276 275 275 274 273 272 272 272 272 272 273 273 273 273 274 275 277 279 280 281 282 283 285 285 285 284 283 283 282 282 282 283
278 277 276 276 275 274 274 273 273 272 271 271 271 271 271 271 271 271 272 272 273 274 276 278 279 280 281 283 283 284 285 284 283 283 282 281 282 283
275 275 274 273 273 272 272 271 271 270 270 269 269 270 270 270 270 271 271 271 272 273 274 276 278 280 281 282 284 284 285 283 283 282 281 281 283 283
273 272 272 271 271 270 270 269 269 268 268 268 269 269 269 270 270 270 270 271 271 272 273 276 277 279 280 282 283 284 284 283 282 281 281 283 283 283

GFSNE_850_thetae_063.txt.gz
Theta_e
320 320 322 321 321 320 321 320 319 315 315 314 312 312 310 308 306 306 305 302 301 301 300 300 299 298 298 297 297 297 296 296 296 296 297 297 296 296
320 320 321 321 321 321 319 320 317 316 312 312 312 310 309 307 306 304 301 299 299 299 298 297 295 294 295 295 295 297 297 297 296 295 296 296 296 295
322 322 322 321 321 320 320 318 317 316 313 312 310 308 307 306 304 302 300 297 296 295 294 292 291 291 291 291 292 292 293 293 294 295 295 295 295 295
321 321 322 321 321 321 318 318 316 315 312 310 308 305 305 303 302 299 295 293 292 291 290 289 288 287 287 287 287 287 287 288 290 292 292 293 293 294
322 318 321 321 320 320 318 317 314 312 310 307 305 303 302 301 295 293 292 290 289 289 288 289 288 288 288 287 287 286 286 285 285 287 290 290 291 292
322 322 322 320 320 319 317 315 311 309 307 304 302 302 300 295 292 291 290 288 288 289 289 289 288 288 288 287 287 286 285 284 284 289 289 288 289 291
323 322 320 319 319 317 314 311 309 307 304 302 300 299 295 292 291 288 287 287 288 288 288 288 288 288 287 286 286 285 285 285 283 289 288 288 289 290
323 321 319 318 316 312 309 305 305 302 302 300 299 296 292 291 287 286 286 285 286 286 286 287 287 287 286 285 285 285 285 285 283 286 287 289 289 290
321 320 319 316 311 308 306 305 302 301 300 298 295 292 290 286 285 285 285 284 284 285 285 285 286 285 285 284 285 285 286 287 287 288 288 288 288 289
320 318 314 311 308 306 305 302 300 299 297 295 292 289 286 285 284 284 284 283 284 284 284 284 284 284 285 286 285 285 286 287 287 288 288 288 288 287
314 311 308 307 306 303 301 299 298 296 294 291 287 285 284 284 284 283 283 283 283 283 283 283 284 285 285 285 287 285 286 287 287 288 288 287 287 286
308 306 304 303 301 299 298 297 295 291 288 284 283 283 282 283 282 283 282 281 281 282 283 282 282 283 284 285 286 287 286 286 287 287 287 286 286 285
307 304 301 299 298 296 295 292 289 285 283 283 283 282 282 283 282 281 281 282 281 280 280 280 281 282 283 284 286 286 286 286 286 287 286 285 284 284
301 299 298 296 295 292 290 286 283 283 283 283 282 283 282 281 281 283 283 281 279 279 279 279 280 281 283 284 285 287 286 286 286 286 285 284 284 283
297 296 295 293 290 286 284 282 283 284 283 283 283 281 280 282 284 282 279 278 278 278 278 279 280 282 283 284 285 286 285 286 285 285 285 284 283 282
294 292 289 286 284 282 283 285 285 283 280 280 281 281 281 281 279 278 277 277 277 277 277 278 279 281 283 285 285 286 285 285 285 285 284 284 282 282
291 288 284 283 284 285 285 283 279 280 281 280 279 280 279 278 276 275 276 276 276 276 277 277 278 280 282 284 285 285 285 285 285 285 284 284 283 282
287 285 285 285 284 282 279 278 280 279 279 279 278 277 276 275 275 274 274 274 274 274 275 276 277 279 281 283 284 285 285 285 284 285 284 284 284 283
285 285 283 282 281 280 279 278 277 277 277 276 276 275 274 273 273 272 272 272 272 272 273 275 275 277 279 280 284 285 285 285 284 284 284 284 283 283
282 281 280 279 278 277 276 276 275 275 274 274 273 272 271 271 271 270 270 270 270 271 272 273 275 276 276 277 279 283 284 285 285 284 284 283 282 282
278 278 277 276 275 275 274 274 273 273 272 271 271 270 270 270 270 269 268 269 270 270 271 272 273 275 276 277 279 282 284 285 285 284 284 283 283 283
276 275 274 274 273 273 272 271 271 270 269 268 268 268 268 268 268 267 267 268 268 269 270 271 272 273 274 276 278 281 283 284 284 283 283 282 283 283
273 273 272 271 271 270 270 269 268 268 268 268 267 267 267 267 266 266 267 267 268 268 269 270 271 272 274 275 277 281 283 284 283 283 282 281 281 283

GFSNE_850_thetae_066.txt.gz
Theta_e
318 318 321 319 318 320 321 320 319 318 317 316 314 316 314 312 311 311 310 308 307 305 303 302 302 301 300 299 297 295 295 296 296 296 297 297 297 298
319 319 321 322 320 320 321 321 321 320 317 316 316 312 313 312 311 309 307 306 305 303 300 297 297 296 294 293 292 291 291 291 292 292 293 294 296 297
317 319 322 322 322 322 321 320 321 320 316 315 313 314 312 311 308 307 305 304 302 302 296 294 293 291 290 290 289 289 288 288 288 288 288 289 291 293
319 320 321 320 321 319 318 317 320 320 317 315 313 312 311 308 307 304 303 301 299 296 293 291 290 290 289 289 289 289 288 288 288 287 287 286 285 287
320 319 319 320 321 319 318 318 320 316 317 315 312 311 309 307 306 304 303 297 295 292 291 290 289 289 289 289 289 288 288 288 287 287 287 286 285 285
318 320 321 321 322 321 319 319 319 318 315 313 311 308 307 304 303 301 296 294 292 290 289 289 289 289 290 290 289 289 288 287 287 286 286 285 285 286
319 320 322 321 321 321 321 320 319 316 313 310 307 306 304 302 301 296 292 291 290 289 289 289 288 288 289 289 289 289 287 285 285 285 286 286 284 284
319 321 322 322 321 320 320 319 316 315 311 308 305 304 302 299 295 291 290 290 290 290 289 288 287 288 289 289 288 287 286 285 285 286 286 287 285 286
322 322 322 322 321 320 319 316 311 308 305 305 304 301 297 294 291 289 288 289 289 288 287 287 288 289 289 288 287 286 285 285 285 286 286 288 288 288
321 320 321 319 318 320 315 310 305 304 303 300 298 297 294 291 288 285 285 285 284 286 287 287 288 288 287 287 287 287 285 286 285 286 287 287 288 288
320 319 319 316 313 307 304 302 301 300 298 298 296 293 290 286 284 284 284 285 286 286 286 286 287 287 286 285 286 287 287 287 286 286 287 287 288 288
315 314 309 308 306 303 301 300 299 297 296 294 291 287 284 284 284 283 283 283 284 285 286 285 286 284 285 286 286 287 287 288 287 286 286 287 287 286
310 306 302 300 300 300 298 296 295 293 290 286 286 285 283 283 283 284 284 281 281 284 284 283 283 282 282 283 284 285 286 287 287 287 287 286 287 286
305 301 300 299 298 296 295 293 291 286 285 285 284 284 284 284 285 283 281 283 284 283 282 279 279 280 281 282 282 284 285 287 288 287 288 287 285 285
300 298 297 296 295 294 290 288 287 285 284 286 285 285 284 281 281 282 284 283 282 281 279 278 278 279 281 282 282 283 285 287 287 287 287 287 286 286
297 295 293 292 291 291 290 285 284 286 287 284 282 280 281 281 280 280 280 280 278 278 278 278 278 278 279 280 281 282 284 287 287 287 287 286 286 285
293 291 290 288 286 284 284 285 284 283 280 280 280 279 278 277 277 276 277 276 276 277 277 277 278 278 278 279 280 282 283 285 286 286 286 286 285 285
289 288 286 285 284 282 281 279 278 278 277 278 277 275 275 275 275 275 274 275 276 276 276 276 277 277 278 280 281 282 284 285 286 286 286 286 286 286
285 284 283 282 281 280 278 277 276 275 277 274 274 274 273 273 273 274 274 274 275 275 275 275 276 277 278 279 280 281 283 286 286 286 286 286 286 286
282 280 279 278 277 276 276 275 275 274 273 272 272 272 271 272 272 273 273 273 273 274 273 274 275 276 277 278 276 280 281 283 285 286 286 286 286 285
278 277 276 276 275 274 273 273 272 271 271 270 271 271 271 271 271 271 271 271 271 272 273 274 274 274 274 275 276 278 280 282 283 285 286 286 285 285
275 275 274 273 272 272 271 271 271 271 270 270 270 269 269 269 269 270 270 271 271 271 272 272 273 274 275 276 277 278 279 281 284 285 285 285 285 285
272 272 271 270 270 270 269 269 269 268 268 268 267 268 268 268 268 268 269 269 270 270 271 271 272 273 274 275 276 277 278 280 283 284 284 283 283 283

GFSNE_850_thetae_069.txt.gz
Theta_e
317 321 320 320 318 318 320 320 317 319 319 317 318 318 318 316 314 315 314 312 312 312 310 309 307 306 303 301 302 301 300 297 294 293 292 292 292 292
318 319 321 321 321 320 320 322 320 320 319 319 319 318 316 314 314 314 312 311 312 309 308 307 305 303 300 296 296 294 292 291 290 290 290 289 289 289
320 320 320 321 319 319 322 322 321 321 320 319 319 317 315 312 310 313 312 311 309 308 307 306 304 300 295 293 292 291 290 290 290 290 290 289 289 289
320 321 320 320 317 320 321 320 320 318 316 316 317 318 314 314 313 312 311 307 307 304 302 304 300 293 292 290 290 290 290 290 290 290 289 289 288 288
320 320 320 319 317 317 319 319 319 320 318 317 317 315 314 312 310 308 309 307 304 302 301 297 294 292 290 290 290 290 290 290 289 289 289 288 288 287
320 320 320 317 315 316 318 319 319 321 319 318 317 314 314 312 312 309 306 304 302 299 295 292 291 290 290 289 289 289 291 291 290 289 288 287 287 286
320 320 319 317 315 315 318 320 322 321 320 318 314 313 311 311 307 306 303 302 297 295 293 292 291 290 290 290 290 290 291 291 290 287 286 286 286 286
321 320 318 316 318 319 318 322 321 320 319 317 314 313 311 307 305 303 300 297 294 293 291 292 291 290 289 289 290 290 290 289 287 286 285 285 285 286
321 319 318 321 323 323 321 319 317 314 313 312 312 308 305 302 301 299 295 293 291 291 291 290 288 288 290 290 290 289 289 288 286 286 285 285 285 286
318 317 320 322 323 321 320 317 313 309 305 305 304 302 299 298 296 294 291 289 289 288 286 286 289 289 289 289 289 289 288 286 286 287 287 286 286 286
320 320 320 320 319 319 318 315 309 302 300 300 301 300 299 295 292 290 287 285 287 287 288 287 288 287 288 288 288 287 287 287 287 287 288 287 286 286
321 319 318 316 313 311 308 306 304 301 300 298 297 296 294 289 285 286 287 285 284 286 288 287 287 287 286 286 286 287 286 287 286 288 288 287 287 287
316 313 310 307 305 303 300 300 299 298 295 295 292 287 287 288 287 286 283 283 284 285 285 285 284 284 284 284 284 283 284 283 284 286 288 288 287 287
308 304 301 299 299 298 297 296 295 295 294 291 287 286 285 283 283 283 284 285 283 282 282 283 283 283 282 281 281 282 283 283 284 286 288 288 287 287
301 298 296 295 296 296 295 295 294 292 290 288 285 284 284 284 283 283 282 282 282 282 282 281 280 279 279 280 281 282 282 282 282 284 286 287 287 287
297 296 295 294 294 293 292 290 289 288 287 286 285 283 282 282 281 280 279 279 279 279 280 279 279 279 279 279 280 280 281 282 282 283 285 288 287 287
294 293 292 291 290 289 287 286 285 285 283 281 281 280 279 279 279 279 278 278 278 278 279 279 279 278 278 279 279 279 280 281 282 283 284 287 286 287
290 289 288 286 285 284 283 281 280 280 279 279 277 277 277 277 277 277 277 276 277 278 278 278 278 278 278 278 279 280 281 282 283 284 285 286 286 286
286 284 283 283 282 281 280 279 279 277 277 276 276 275 275 275 274 275 275 276 276 276 277 277 277 276 277 278 279 279 280 279 280 281 284 287 286 286
283 282 281 280 279 278 278 277 276 276 275 274 273 273 273 273 273 274 274 274 275 274 274 274 275 276 277 277 276 276 277 277 279 281 283 285 287 286
279 279 278 277 276 276 275 274 274 273 273 273 273 272 272 272 272 272 272 272 272 273 274 274 274 274 274 274 275 276 277 278 279 280 281 283 286 286
276 275 274 274 273 273 273 273 272 272 272 271 271 270 270 270 270 270 271 271 271 272 272 272 272 273 273 274 275 276 276 277 278 279 282 283 285 286
274 273 273 272 271 271 271 270 270 269 269 269 269 269 269 269 269 269 269 270 270 270 271 271 272 272 273 273 274 274 276 277 278 280 283 285 284 285

GFSNE_850_thetae_072.txt.gz
Theta_e
318 317 317 317 317 318 319 319 319 320 320 319 319 320 320 319 317 318 319 318 317 316 314 312 311 311 310 309 307 306 304 301 301 300 298 294 292 291
318 318 318 317 317 317 318 320 320 319 320 318 320 320 320 319 318 319 319 317 316 314 314 312 311 310 308 307 306 304 300 296 296 294 292 291 290 290
319 319 319 317 317 318 318 319 320 319 320 321 318 319 320 319 318 318 317 316 315 314 313 312 310 308 307 306 304 301 295 294 292 291 290 290 290 291
318 319 319 319 320 320 320 320 320 318 319 321 317 319 319 317 318 316 315 315 315 312 311 310 308 307 306 304 297 294 292 291 290 290 290 290 291 291
318 319 319 320 321 321 321 320 319 319 318 318 317 319 318 318 316 316 315 314 311 310 308 306 306 307 305 302 295 292 290 290 290 290 290 290 290 289
319 320 320 321 321 321 321 320 320 319 318 317 318 318 318 318 317 316 315 313 308 306 304 303 302 300 299 295 291 289 289 289 289 290 291 291 290 288
321 321 321 321 321 321 320 320 320 319 318 316 316 317 316 317 318 316 313 309 306 304 300 297 294 294 293 292 290 290 289 290 291 291 290 290 288 287
321 321 321 322 321 321 320 320 319 319 316 316 316 314 315 315 315 311 306 303 301 300 296 295 297 292 291 291 290 289 290 291 290 290 290 288 287 286
322 322 322 321 321 321 321 320 318 318 318 317 316 313 312 310 305 303 301 302 300 298 296 294 292 291 291 289 288 290 290 290 290 289 289 287 286 286
322 321 321 322 321 321 321 321 318 317 315 313 311 309 307 305 303 301 300 299 296 295 293 291 290 289 288 289 291 290 289 289 289 289 287 287 287 287
321 320 320 320 320 320 320 319 315 312 309 305 303 301 299 299 298 298 295 292 288 287 287 290 290 288 288 289 288 288 289 288 287 287 287 287 287 287
321 321 320 320 320 319 316 312 308 304 299 299 298 297 296 294 294 293 289 287 289 288 286 286 287 288 288 288 287 287 287 287 287 287 286 284 285 288
321 321 318 317 315 311 306 304 301 298 295 295 295 295 294 292 291 290 289 288 286 285 285 285 286 287 286 285 285 285 285 285 284 283 284 284 287 288
317 314 310 305 303 300 297 297 296 295 294 294 294 293 291 288 287 286 286 285 284 284 285 285 283 282 282 283 283 283 282 282 282 283 282 282 285 287
303 303 301 298 295 294 294 294 293 293 292 291 289 287 286 285 285 285 285 284 284 283 283 282 281 281 280 279 279 280 280 280 280 282 283 284 285 286
296 294 293 293 293 292 291 290 290 289 288 287 286 285 284 283 283 282 281 280 280 280 280 280 279 279 279 279 279 279 279 279 279 279 280 282 283 283
290 290 290 289 290 289 288 288 287 286 285 284 283 282 281 281 280 279 279 278 278 277 277 278 278 278 278 278 278 278 278 279 280 280 282 282 283 284
290 289 287 286 285 284 284 283 282 282 281 280 280 279 278 278 277 277 276 276 276 276 276 277 277 277 277 277 277 278 278 280 280 281 281 281 282 283
288 286 284 284 283 282 281 280 280 279 278 278 277 276 276 275 274 274 274 275 275 275 275 275 275 275 275 275 276 277 278 278 278 278 278 278 280 281
284 283 282 281 280 280 279 278 277 276 276 275 274 274 273 273 273 272 273 273 273 273 273 272 273 274 274 273 274 274 274 275 276 277 278 278 279 282
281 280 279 279 278 277 276 275 275 274 273 273 272 272 272 271 271 271 271 271 271 271 271 272 272 272 272 272 272 273 273 274 276 277 278 278 278 281
277 276 276 275 275 274 273 273 272 272 272 271 270 270 270 269 269 269 269 269 270 270 270 270 270 271 271 272 272 272 273 273 274 275 277 278 279 280
275 274 273 272 272 272 271 271 270 270 269 269 269 269 268 268 268 268 269 269 269 269 269 270 270 270 270 270 271 272 272 273 274 276 277 279 281 283

GFSNE_850_thetae_075.txt.gz
Theta_e
318 319 319 318 317 317 318 318 318 319 318 318 318 318 317 317 318 318 320 319 317 317 318 318 316 314 312 310 311 310 309 308 307 306 304 301 300 299
319 318 318 317 317 317 317 317 317 317 319 319 318 319 318 317 317 317 317 319 318 319 319 318 316 315 313 310 310 311 309 308 306 304 301 297 295 293
318 318 317 317 317 317 318 318 318 317 318 318 318 317 319 317 317 317 317 319 318 318 318 317 316 315 312 310 310 310 307 306 304 302 295 294 292 290
317 318 318 318 318 318 318 318 318 317 318 318 319 319 318 318 318 318 318 317 318 317 317 316 316 314 310 308 308 306 305 303 300 295 293 291 290 289
317 318 318 318 318 318 318 318 318 318 319 321 321 320 320 319 319 317 317 318 318 316 316 315 314 310 308 307 304 303 301 296 294 292 290 289 289 289
315 315 316 318 318 318 318 318 319 319 320 321 320 320 319 318 317 317 316 317 318 317 316 314 310 308 306 303 300 300 300 293 290 289 289 289 289 290
316 316 317 319 318 317 318 319 320 321 321 321 320 319 319 318 318 316 316 316 316 314 310 308 306 304 300 297 298 298 294 290 289 289 289 291 291 290
315 316 319 319 319 319 320 320 321 321 321 321 320 319 319 317 317 316 314 313 308 307 304 304 304 302 300 300 299 294 292 290 289 290 291 290 290 289
321 321 321 321 321 321 321 322 322 322 322 321 321 320 319 316 315 315 312 308 305 304 302 301 300 300 299 297 292 291 290 289 290 291 290 290 289 289
322 322 322 321 321 321 321 322 322 321 321 321 321 319 316 312 310 308 306 304 301 300 299 298 296 295 295 293 290 289 289 289 289 289 289 289 289 288
322 322 321 321 321 321 321 321 321 322 321 321 317 315 309 304 303 302 300 299 297 295 294 295 295 293 292 291 290 289 288 289 289 289 288 287 287 287
322 323 323 322 322 321 321 320 321 317 310 306 304 301 301 299 299 296 296 295 295 293 291 291 290 289 287 287 288 288 288 288 288 287 287 287 287 286
322 323 322 321 321 320 319 315 309 303 298 297 296 295 294 294 295 295 295 294 290 289 288 288 287 286 286 285 286 287 286 286 286 286 286 285 284 284
319 313 310 312 304 302 301 300 297 297 294 293 293 291 292 292 291 291 290 289 288 287 286 285 284 284 283 283 282 283 283 283 282 282 282 282 281 282
303 298 298 296 295 296 293 292 291 292 291 292 291 290 288 287 285 286 285 284 284 284 283 283 282 281 280 280 280 279 279 279 280 281 281 282 281 280
296 293 292 291 291 290 290 290 290 290 290 288 287 286 284 284 284 284 283 282 282 281 280 279 279 279 279 279 279 278 278 278 278 278 279 279 280 281
290 290 290 290 289 289 288 287 286 286 286 285 284 283 283 283 282 281 280 278 278 277 277 277 277 277 278 278 278 277 277 277 277 278 279 279 280 281
290 289 286 286 286 285 285 284 283 283 283 282 281 280 279 278 277 277 276 276 275 275 275 275 275 275 275 276 275 275 276 276 276 277 277 277 278 278
288 286 285 284 283 282 282 281 281 279 278 278 277 276 276 275 274 274 274 273 273 273 273 273 273 273 273 273 273 273 273 274 274 274 274 276 277 277
285 283 282 281 280 280 279 278 277 276 276 275 275 274 274 273 273 272 272 272 271 271 271 271 271 272 271 271 271 271 272 273 273 273 274 275 276 277
280 280 279 278 278 277 276 275 275 274 274 274 273 273 272 272 271 271 270 270 270 270 270 270 270 270 270 271 271 271 271 271 272 273 273 274 275 276
278 277 276 276 275 275 274 273 273 272 272 272 271 271 271 270 270 269 269 269 269 269 269 269 269 269 269 269 270 270 270 271 272 273 274 275 276 277
275 274 273 273 272 272 272 272 272 272 271 271 271 270 269 269 268 268 268 268 268 268 268 268 268 268 269 269 270 270 271 271 272 273 274 275 276 277

GFSNE_850_thetae_078.txt.gz
Theta_e
317 320 320 319 318 318 318 318 318 318 319 318 318 317 317 317 318 319 319 318 317 317 316 319 318 317 317 315 315 314 312 312 311 308 308 307 307 307
317 318 319 317 317 318 318 318 317 317 318 317 317 317 317 317 317 317 317 318 318 318 317 316 318 318 318 317 316 312 312 311 310 308 307 306 306 305
317 316 318 317 318 317 318 317 317 317 317 317 317 317 317 317 317 317 318 318 318 318 318 317 317 318 318 318 317 314 313 310 308 306 306 306 304 303
317 317 317 317 318 318 318 317 317 317 317 317 318 318 317 317 318 319 319 318 318 317 318 316 316 318 317 318 316 313 311 308 305 304 303 302 300 297
318 317 317 316 317 317 318 318 317 317 317 318 318 318 317 318 318 318 317 317 317 318 317 316 316 317 318 316 315 312 308 305 303 303 301 299 295 292
316 316 316 316 316 317 317 318 318 318 317 318 318 318 318 319 319 320 319 319 319 318 317 317 316 317 316 314 311 309 305 303 302 301 300 300 291 288
318 318 317 316 316 315 315 315 315 316 318 318 319 319 320 320 319 320 319 319 318 318 317 316 315 315 314 309 306 303 302 301 300 300 300 291 290 290
320 320 319 318 317 316 316 317 316 317 318 318 319 319 319 320 320 319 319 318 317 316 315 313 311 310 308 306 303 300 299 299 299 298 291 291 291 291
321 320 320 319 318 317 316 316 317 319 319 319 319 320 320 321 320 320 319 319 316 313 311 308 305 304 303 301 300 298 297 297 293 290 289 290 290 291
321 321 321 321 321 321 321 321 321 321 321 321 321 321 320 320 319 317 315 312 309 307 304 301 300 299 298 297 296 295 294 292 290 289 289 289 289 289
322 322 322 322 322 321 321 321 321 321 321 321 321 321 320 319 314 309 307 305 302 297 297 297 295 295 294 294 294 292 290 290 289 289 288 289 289 288
324 324 323 323 322 322 321 321 321 321 320 316 312 313 308 303 301 300 300 299 298 294 293 293 293 293 292 292 292 290 289 288 287 287 288 288 287 287
324 324 324 324 323 323 322 320 318 313 302 298 298 297 296 296 296 295 294 294 294 293 291 290 288 288 287 287 286 286 287 287 287 287 286 286 285 285
315 306 301 301 304 307 308 306 300 296 295 295 294 292 293 293 293 293 292 292 291 290 288 287 287 286 285 284 283 283 283 283 283 283 282 282 282 281
301 298 298 299 299 297 293 293 293 293 293 292 291 290 291 290 289 289 289 288 287 286 286 285 284 282 281 280 279 279 279 279 280 280 279 279 279 279
296 293 292 292 292 291 291 291 291 291 291 289 288 286 286 286 286 285 284 284 284 283 282 281 279 279 279 279 278 278 278 277 277 277 277 277 277 278
292 292 292 292 291 290 289 288 288 288 288 287 286 285 284 283 282 281 281 280 279 278 278 278 277 277 276 276 276 275 275 275 275 275 276 276 276 277
291 290 288 287 287 286 286 285 284 283 283 282 282 281 281 279 279 278 277 276 275 275 274 274 274 274 273 274 274 274 273 273 273 273 273 273 273 274
289 286 285 284 283 283 282 282 281 280 280 280 279 278 276 275 274 274 273 273 273 272 272 271 271 271 271 271 271 272 271 271 272 272 272 272 272 273
284 283 282 281 281 280 280 279 278 277 276 275 274 273 273 272 272 272 272 271 271 271 270 270 270 270 270 270 270 270 271 270 270 271 271 271 272 272
280 280 279 278 278 277 276 275 274 274 273 273 272 272 272 272 272 271 271 270 270 270 270 270 269 269 270 270 270 270 270 270 271 271 272 272 273 274
278 277 276 275 274 274 273 273 272 272 272 272 272 271 271 270 270 270 270 270 270 269 269 269 269 269 269 269 269 269 270 270 271 272 272 272 273 274
274 273 273 272 272 272 272 271 271 271 271 270 270 270 270 270 270 270 270 269 268 268 268 268 268 269 269 269 269 269 269 270 271 272 274 274 275 275

GFSNE_850_thetae_081.txt.gz
Theta_e
317 320 320 320 319 320 319 319 318 317 318 317 318 317 318 318 318 317 317 317 317 318 317 318 318 317 317 317 318 318 316 314 313 313 314 311 312 311
318 320 320 319 319 319 320 318 317 316 317 318 318 317 317 317 317 317 317 317 317 317 317 318 318 318 318 318 317 318 318 317 316 316 314 312 313 311
320 319 317 316 318 317 318 318 316 316 317 317 317 317 317 317 317 317 318 317 317 317 317 318 318 318 317 318 317 317 318 318 318 315 313 313 313 310
318 317 316 315 316 317 317 316 317 318 318 317 318 318 317 317 317 317 318 317 317 317 317 317 318 318 318 318 317 317 318 318 317 315 312 312 309 306
316 316 316 317 316 317 317 317 317 317 318 318 318 318 318 317 317 317 317 318 317 317 318 319 319 319 318 317 317 316 317 316 315 313 311 310 307 304
316 316 317 317 318 317 318 318 318 317 317 317 317 317 317 317 317 316 317 316 318 318 318 318 318 318 317 318 317 316 316 314 312 311 311 308 305 301
318 318 317 317 316 316 317 316 316 316 316 316 317 317 317 317 317 317 318 317 317 317 318 318 318 318 318 318 317 315 313 311 310 308 305 302 300 300
318 319 320 319 319 320 319 319 319 317 317 317 317 317 316 317 317 318 318 318 318 317 317 316 316 316 316 315 314 309 308 307 305 301 300 299 299 298
321 321 321 321 321 321 321 320 319 318 318 317 317 317 317 317 318 318 319 319 319 318 317 316 314 312 310 307 307 305 303 301 298 298 297 297 297 294
321 321 321 321 321 321 320 320 319 320 320 320 319 319 319 318 318 319 319 319 318 316 311 305 303 303 299 300 298 296 296 296 296 295 294 292 290 290
323 323 321 321 321 321 321 321 321 321 321 321 321 320 320 320 320 318 315 313 309 304 301 299 296 296 295 294 293 293 292 292 291 291 290 289 289 288
321 321 321 321 321 321 321 320 318 318 317 313 312 314 312 307 303 302 302 301 300 295 293 295 293 293 292 292 291 291 291 290 289 289 288 288 288 287
318 317 316 316 319 319 320 316 313 309 306 297 294 293 293 295 296 296 295 295 295 295 292 291 290 290 290 289 289 289 288 287 287 287 286 286 286 284
311 309 307 307 303 305 307 308 303 299 298 296 295 294 294 292 291 291 291 292 291 290 288 288 287 286 285 285 284 284 284 284 283 283 282 282 282 281
300 298 297 297 298 298 294 293 294 294 294 293 292 291 290 289 289 289 288 288 287 286 286 286 285 284 282 281 280 280 280 280 280 280 280 279 279 279
293 293 293 293 292 291 291 291 291 291 291 290 289 287 286 286 287 286 286 285 284 284 283 282 281 280 279 278 278 277 277 277 277 277 277 276 276 276
292 291 291 290 289 288 288 287 287 287 286 285 285 284 285 285 285 284 283 281 280 279 278 277 276 276 276 275 275 275 275 274 274 274 274 273 274 274
291 290 288 288 288 286 286 286 285 285 284 284 284 283 282 281 279 277 276 276 275 275 274 275 275 275 274 274 273 273 273 272 272 272 271 271 271 272
289 286 286 285 284 284 283 283 283 283 282 281 278 277 276 276 275 275 274 274 274 273 273 273 272 272 272 272 273 272 270 270 270 270 271 271 271 272
285 284 283 282 281 281 281 280 279 277 276 275 275 275 274 274 274 274 273 273 272 272 271 271 271 270 270 269 269 272 271 271 271 270 271 271 271 272
282 281 280 279 278 277 276 275 274 274 274 273 273 273 272 272 272 272 271 271 271 271 270 270 270 269 269 270 270 272 272 271 270 270 270 271 271 272
277 276 275 275 274 273 273 273 272 272 272 272 271 271 271 271 271 271 270 270 270 270 269 269 270 270 270 269 270 270 271 272 272 272 273 272 271 271
273 273 273 272 272 272 271 271 271 271 271 271 271 271 270 270 270 270 269 269 270 270 270 270 270 270 270 269 269 270 270 271 272 273 275 275 274 275

GFSNE_850_thetae_084.txt.gz
Theta_e
321 321 320 319 319 319 319 318 318 319 319 318 318 317 317 317 318 317 318 318 318 317 317 317 317 317 317 317 318 318 317 317 317 317 318 316 317 316
319 320 320 319 319 319 319 318 318 319 319 318 317 317 316 317 317 318 318 317 317 317 318 317 317 317 317 317 318 318 318 318 318 318 317 318 318 317
320 320 320 318 318 316 319 319 319 319 319 318 317 317 316 316 317 317 318 318 318 317 317 317 317 317 317 317 317 318 318 317 317 317 316 317 318 318
320 320 319 318 318 318 318 317 317 317 318 318 317 316 316 317 317 317 318 318 318 317 317 316 316 317 317 317 317 317 318 318 318 317 316 315 317 317
321 321 320 320 319 318 318 317 316 315 315 316 317 317 317 317 317 317 317 316 316 316 315 315 316 317 317 317 318 318 318 318 318 318 317 316 316 315
320 320 320 319 318 318 317 317 317 318 317 317 318 318 318 317 317 317 316 316 315 316 316 316 318 317 317 317 318 318 318 318 317 318 316 315 315 314
318 318 318 319 318 318 318 317 318 318 317 318 318 317 317 316 316 317 316 316 316 316 316 317 317 317 317 317 318 318 317 317 316 316 315 313 312 308
321 320 320 320 319 317 316 315 317 318 318 318 317 317 317 317 316 316 316 316 315 316 316 317 318 317 317 318 317 317 316 315 314 312 311 307 305 303
319 320 321 321 321 321 321 321 321 320 320 320 318 317 317 318 317 317 316 316 316 317 317 318 317 315 314 311 307 305 303 301 300 300 299 299 299 298
322 322 322 322 321 321 321 321 321 321 320 320 319 318 317 317 317 316 316 315 315 315 313 310 307 304 301 299 297 296 295 295 295 293 293 295 294 294
321 320 320 320 319 320 320 320 318 317 317 318 318 318 317 315 315 314 313 311 307 305 302 301 299 297 294 293 292 293 292 292 292 292 292 291 291 291
320 318 320 317 318 318 318 316 315 312 312 310 305 303 302 305 304 303 304 303 301 297 295 294 292 291 291 290 290 290 290 290 290 290 289 289 288 288
315 313 312 312 312 314 311 311 309 308 308 306 301 301 299 299 298 297 295 296 296 295 292 292 291 290 290 287 287 287 287 286 287 287 287 287 287 287
307 305 303 301 301 302 304 304 303 296 296 296 294 293 292 292 291 291 291 291 291 290 288 289 289 288 288 287 286 286 286 286 286 285 285 284 283 282
299 297 295 295 295 296 294 293 293 293 293 293 291 289 288 287 287 288 288 288 288 288 288 287 287 286 285 283 282 282 281 280 280 279 279 279 278 278
293 293 293 292 292 291 291 290 290 290 289 289 288 287 286 287 287 287 287 286 286 285 283 281 280 279 279 278 277 276 276 276 275 275 275 275 275 275
291 290 290 290 289 288 288 287 287 286 287 285 285 285 285 285 283 281 280 279 279 278 277 277 276 276 275 275 275 275 274 273 273 273 274 274 274 274
290 290 289 288 288 287 286 286 285 285 285 284 283 281 279 278 277 277 276 276 276 275 275 275 275 275 275 274 274 273 273 273 273 273 273 272 273 274
289 287 286 286 285 284 284 284 283 282 279 277 277 276 276 275 275 275 274 274 274 273 273 273 273 273 273 273 273 272 271 272 272 273 273 272 273 274
285 284 283 282 281 280 279 277 276 275 275 274 274 274 274 274 273 273 273 273 272 272 272 272 271 271 271 270 271 273 272 271 271 272 273 273 274 275
281 281 280 278 277 276 275 274 274 274 274 273 273 273 273 272 272 272 272 272 271 271 271 271 271 270 271 271 271 272 274 273 272 273 273 273 274 275
276 275 274 274 274 273 273 273 273 273 272 272 272 272 271 271 271 271 271 270 270 270 270 270 270 270 271 271 271 272 273 274 274 275 275 273 271 271
273 273 272 272 272 272 272 272 271 271 271 271 271 270 270 270 270 270 270 270 270 270 270 270 270 270 271 271 271 271 271 272 274 276 277 276 276 276

GFSNE_850_thetae_087.txt.gz
Theta_e
314 317 317 317 319 318 318 318 318 318 319 318 318 318 318 317 317 317 317 317 317 317 318 318 318 318 318 318 318 317 317 317 317 318 318 317 317 317
312 318 318 317 319 320 319 318 318 317 318 319 318 318 318 318 318 317 317 317 317 318 318 318 318 318 318 317 317 317 317 317 317 317 318 318 318 318
314 317 318 317 319 320 320 318 318 319 318 319 318 318 318 318 317 317 317 317 317 316 317 317 317 318 318 317 317 317 316 317 317 317 318 318 318 317
317 317 318 317 318 318 318 319 318 318 317 317 316 317 317 315 316 316 316 316 316 317 317 316 316 317 316 316 315 315 316 316 317 317 318 318 318 318
318 319 320 321 321 320 319 318 317 317 318 318 318 318 317 317 316 316 316 317 317 317 316 315 316 315 315 316 316 316 317 317 317 318 319 318 318 318
320 319 320 320 321 321 320 320 320 319 319 318 318 317 317 317 318 318 318 317 317 316 318 319 318 317 316 316 317 317 317 317 317 317 318 318 318 318
319 319 319 319 319 319 319 319 319 319 319 319 318 318 317 317 317 318 318 318 318 318 317 317 316 316 316 317 317 317 317 317 317 317 317 317 316 316
320 320 320 320 320 319 318 318 318 318 319 318 317 317 317 318 319 319 318 317 317 317 317 316 316 316 316 316 316 316 316 317 317 316 316 316 314 312
319 319 319 319 319 320 320 320 321 321 320 318 318 317 317 317 316 316 316 317 316 316 316 316 314 312 310 309 309 309 308 306 306 306 306 303 302 300
320 319 319 319 318 319 319 320 319 319 319 318 317 317 316 316 315 314 313 313 311 310 307 307 307 305 304 302 300 299 298 297 297 296 295 295 296 297
320 320 319 319 319 318 318 318 317 316 313 313 313 312 312 311 311 310 308 309 307 306 304 301 300 298 295 294 293 293 293 293 293 293 293 293 293 293
318 318 319 317 317 316 315 314 312 311 311 308 306 306 305 304 302 301 301 301 299 297 295 295 292 291 291 290 289 290 290 290 290 289 289 289 289 289
312 311 310 309 309 308 307 308 307 307 301 299 299 298 297 296 296 295 295 295 294 293 291 291 290 289 289 287 287 288 288 288 288 288 288 288 288 288
306 303 301 300 300 300 300 299 297 296 296 296 295 293 293 292 291 291 291 291 291 290 290 289 289 288 288 287 286 286 286 287 286 285 285 284 283 283
298 296 294 294 295 295 294 294 294 294 293 293 292 291 290 289 289 289 288 288 288 287 287 287 286 285 284 283 282 280 279 278 278 278 278 278 278 277
292 291 292 292 292 291 291 291 291 290 290 290 289 289 288 287 287 287 286 285 283 282 280 279 279 278 278 277 277 277 276 276 276 276 276 276 276 276
290 290 290 289 289 289 289 289 288 288 288 287 286 286 286 284 282 280 279 278 278 277 277 277 277 277 276 276 276 275 274 274 275 275 275 275 276 276
289 289 288 288 287 286 286 285 285 285 284 282 281 279 278 277 277 277 277 276 276 275 275 275 275 275 275 274 275 274 274 274 275 275 274 274 274 276
288 287 286 285 284 283 283 281 279 278 276 276 276 276 276 275 275 275 275 275 274 274 273 274 274 274 274 274 274 273 273 273 273 274 273 273 274 276
285 284 283 281 280 278 276 276 275 275 275 275 274 274 274 274 274 274 273 273 273 272 272 272 272 272 271 271 272 273 273 273 273 273 273 273 276 277
281 280 278 276 275 275 274 274 274 274 273 273 273 273 273 272 272 272 272 272 271 271 271 271 271 272 272 272 272 273 274 273 273 274 275 275 276 278
276 275 274 274 273 273 273 273 272 272 272 272 272 272 271 271 271 271 271 271 270 270 270 271 271 271 270 270 271 271 273 275 275 276 275 274 273 273
273 273 272 272 272 272 272 272 271 271 271 271 271 271 270 270 270 270 270 270 270 269 270 270 270 270 270 270 271 272 273 274 276 277 278 276 276 278

GFSNE_850_thetae_090.txt.gz
Theta_e
323 319 319 320 320 321 321 319 319 319 318 319 319 318 317 316 316 317 316 316 317 317 317 317 317 318 318 318 318 318 317 318 318 317 317 317 317 317
319 318 316 313 320 320 319 317 318 319 319 319 319 321 319 318 318 318 317 317 316 317 317 317 317 317 318 318 318 318 318 318 317 317 317 317 317 317
311 315 313 313 315 317 318 315 316 317 318 318 320 321 320 319 318 317 317 316 316 316 316 316 317 317 317 317 317 317 316 317 317 317 316 316 316 316
315 315 313 312 311 317 318 317 318 319 317 318 318 316 317 317 317 317 317 319 318 317 316 315 316 316 316 317 317 316 315 316 316 316 316 316 316 317
312 311 311 311 315 317 317 316 318 317 318 320 318 318 319 319 319 320 319 319 319 319 318 318 317 317 317 318 318 318 318 317 316 315 316 316 317 317
316 313 315 316 316 318 318 319 319 321 320 320 319 319 319 319 320 319 319 319 319 319 320 320 319 319 318 318 318 317 317 317 316 316 317 317 317 317
320 318 316 316 319 320 320 320 321 321 320 320 320 319 319 320 320 319 320 318 318 319 319 319 319 319 319 318 317 317 317 317 317 317 317 316 317 317
322 321 321 320 320 320 320 319 319 320 320 320 320 320 319 319 319 318 318 318 318 318 318 318 318 318 317 317 316 316 316 316 315 315 315 315 315 313
320 319 319 319 319 319 319 319 319 319 319 318 319 319 318 317 317 317 317 317 316 315 314 314 313 311 311 310 311 310 309 309 309 308 307 306 306 304
320 320 320 320 320 320 320 320 319 319 319 318 318 316 316 315 314 314 313 313 313 310 310 306 306 306 305 303 301 299 297 296 296 295 295 294 294 295
318 318 317 317 317 318 317 317 316 315 315 314 312 313 312 310 311 308 307 306 304 303 302 301 299 297 295 294 294 293 293 292 292 292 292 292 292 291
316 316 315 314 315 314 314 313 313 311 309 303 308 300 303 302 300 300 300 300 300 298 297 296 293 292 291 290 291 291 290 290 290 290 290 290 290 289
309 308 308 307 306 306 306 306 305 303 300 299 298 298 297 296 295 295 295 295 295 295 294 292 291 290 290 288 289 289 289 289 288 288 289 289 288 288
304 302 300 299 299 299 300 298 297 296 296 295 294 294 293 293 292 292 292 291 291 291 290 290 290 289 288 287 286 286 285 286 285 283 282 281 281 281
298 295 294 294 294 295 293 294 294 293 293 292 292 291 290 289 289 288 288 288 287 286 286 286 285 284 283 284 284 283 281 280 279 278 278 278 278 278
292 291 291 292 292 292 291 291 291 291 290 289 288 287 286 286 285 284 283 282 281 280 279 279 279 279 279 280 280 280 279 278 278 277 277 277 278 278
290 290 290 289 289 289 289 289 289 288 287 286 285 283 282 280 279 279 279 279 279 278 278 277 277 277 277 277 279 278 277 277 277 277 276 277 278 278
289 289 288 286 285 285 285 285 285 284 283 281 279 278 278 277 277 277 278 278 278 277 277 276 276 277 277 278 277 276 276 276 276 276 276 277 277 278
287 286 285 283 281 281 280 279 278 277 277 277 277 276 276 276 276 276 276 277 277 276 275 275 275 275 277 278 276 275 274 274 275 276 276 276 277 277
283 281 279 278 277 276 276 276 276 275 275 275 275 275 274 275 275 275 274 274 275 275 275 274 274 273 274 275 274 275 274 274 274 274 275 275 276 277
277 276 275 275 274 274 274 274 274 274 273 273 273 273 273 273 273 273 273 273 273 274 274 274 273 273 273 273 275 275 275 274 273 273 273 274 276 278
274 274 274 273 273 272 272 272 271 272 272 272 272 272 272 271 271 271 271 272 272 272 272 272 272 272 273 273 274 274 275 274 274 274 274 274 274 275
273 272 272 272 271 271 271 271 271 271 271 271 271 271 271 270 270 270 270 270 271 271 271 272 272 272 273 273 273 274 274 274 275 276 276 276 276 279

GFSNE_850_thetae_093.txt.gz
Theta_e
323 323 322 321 320 322 323 321 320 319 320 320 320 319 317 317 317 315 317 318 316 317 317 317 316 316 317 317 317 317 318 318 318 318 318 318 318 318
323 323 322 320 320 320 322 321 322 321 319 319 320 321 320 320 319 318 317 316 317 317 318 317 318 317 317 317 317 317 317 318 318 317 317 317 317 317
320 319 317 318 320 319 318 318 315 320 318 318 317 316 316 320 320 319 319 318 318 317 317 317 316 315 316 316 316 316 317 317 317 316 316 317 317 317
320 316 316 320 319 318 315 314 316 316 319 317 315 315 316 317 317 317 319 318 317 317 318 318 318 318 317 318 318 317 317 316 316 317 317 317 316 316
321 314 312 313 317 316 312 313 313 313 317 317 316 317 318 318 319 319 319 318 318 319 320 319 319 320 320 320 320 319 319 318 318 318 318 317 317 317
320 316 316 318 314 313 313 313 312 314 315 316 318 318 319 320 320 319 319 320 320 320 321 321 321 320 320 320 320 319 319 318 318 318 317 317 317 316
321 319 318 316 315 313 312 312 313 316 318 318 319 320 320 320 321 321 321 321 320 320 320 320 319 319 320 320 320 318 319 319 318 318 317 317 316 315
322 321 319 319 318 315 314 315 315 320 322 322 322 322 321 321 321 320 320 320 319 319 318 318 317 317 315 315 315 314 315 315 314 312 311 309 309 308
322 322 323 322 321 321 321 320 320 320 321 321 320 319 319 318 318 318 316 315 315 314 313 314 314 314 312 311 310 309 308 307 305 304 303 302 302 300
321 320 320 320 320 320 320 320 320 319 319 319 319 318 317 316 316 314 313 313 311 311 309 306 307 306 305 303 301 300 298 297 296 295 295 294 294 294
319 320 320 320 319 319 319 318 317 316 316 315 314 310 309 310 307 306 306 305 304 304 303 302 301 300 299 298 297 295 294 293 292 292 292 292 292 291
317 316 316 316 317 316 313 313 311 309 307 305 304 301 302 299 300 300 300 299 299 298 297 296 296 295 292 293 292 291 291 291 290 290 290 290 290 289
309 308 309 307 309 308 311 306 306 303 300 299 298 298 297 296 296 295 295 295 295 294 293 292 291 290 290 290 289 289 289 288 288 286 284 286 286 284
304 302 300 298 300 300 300 298 298 297 297 296 296 295 294 293 292 292 292 291 291 291 290 290 290 288 287 288 288 287 286 284 283 282 281 280 280 280
298 296 295 295 295 295 295 295 294 294 293 292 292 291 290 289 289 288 288 287 287 287 286 285 285 284 284 284 284 283 283 282 281 280 280 279 279 279
293 292 292 292 293 292 291 291 291 290 290 289 287 286 284 285 284 284 283 282 283 282 281 280 280 279 280 281 281 282 281 280 280 280 279 278 279 279
289 289 289 289 289 288 288 288 287 286 285 285 284 283 282 281 281 280 280 281 282 280 280 279 279 279 279 278 278 279 279 279 279 278 278 278 279 279
288 287 286 284 283 282 282 283 284 284 282 281 280 279 280 279 279 279 279 280 280 279 279 278 278 278 280 280 280 278 277 277 277 277 277 278 278 278
286 284 282 281 280 280 280 279 278 278 277 278 278 277 278 278 278 278 278 278 279 278 278 277 277 277 277 279 279 277 276 276 276 276 277 276 277 278
281 279 279 278 278 277 277 276 276 276 276 276 276 275 275 276 277 276 277 275 275 276 277 277 276 275 274 275 275 276 277 276 276 276 275 276 277 277
277 277 276 276 276 275 275 274 274 274 274 274 274 273 274 274 275 274 275 274 274 276 275 276 275 273 274 275 276 276 276 276 276 275 275 275 276 278
275 275 274 273 273 273 273 272 273 272 272 272 272 272 272 272 273 273 273 273 274 274 274 274 274 274 274 275 275 275 275 276 276 276 276 277 276 276
273 273 272 271 271 271 272 271 270 270 270 270 270 270 270 271 271 271 272 272 273 272 273 273 273 274 274 275 275 275 275 276 276 276 276 277 277 278

GFSNE_850_thetae_096.txt.gz
Theta_e
323 322 322 324 322 323 322 321 321 321 320 321 322 321 319 319 318 318 317 316 314 313 317 316 317 317 317 317 317 317 317 317 317 317 317 317 318 318
323 321 323 322 320 319 321 322 321 322 320 320 320 320 322 321 320 320 320 319 318 317 317 317 317 317 317 317 317 317 317 316 316 316 317 317 317 317
323 322 322 322 321 321 317 314 320 322 321 319 319 319 319 319 318 318 319 317 318 318 318 318 317 318 317 318 317 316 317 317 317 318 317 316 317 317
324 323 322 322 322 320 317 317 316 318 318 317 315 315 317 317 316 316 315 316 317 318 318 318 319 318 320 320 320 318 319 319 319 319 319 318 317 317
324 322 320 318 319 317 316 318 319 318 316 314 315 314 314 316 317 318 317 319 319 319 319 320 320 321 320 320 320 319 320 319 320 320 320 319 319 319
315 318 320 321 318 316 315 317 318 318 315 313 313 312 312 314 317 318 319 320 320 321 321 321 321 321 321 321 320 319 318 318 318 319 319 319 318 317
321 322 322 317 316 315 314 314 313 313 315 313 312 312 314 318 320 320 321 321 322 322 321 321 320 320 320 319 319 318 318 317 315 314 313 312 312 311
320 321 322 318 317 317 318 317 316 314 315 317 316 316 320 321 320 321 321 321 320 319 319 319 318 317 317 316 314 313 312 311 311 310 309 306 304 303
321 321 320 320 320 319 318 317 316 315 315 315 316 318 321 320 319 319 318 318 317 316 315 315 314 314 311 309 308 306 304 303 303 301 299 297 296 295
321 321 321 321 321 321 321 320 319 319 320 320 320 319 319 318 318 317 316 314 312 312 310 308 308 307 305 303 301 299 298 298 296 294 293 293 292 292
320 320 320 321 321 320 320 320 320 318 316 316 316 315 312 313 312 310 310 307 306 305 304 302 302 300 299 298 297 295 294 293 292 292 291 292 291 291
318 318 319 318 318 317 316 314 312 310 310 311 308 305 305 302 302 302 302 301 301 299 298 296 295 294 292 293 292 293 291 291 290 290 289 290 290 287
308 307 308 309 309 310 309 308 305 302 300 300 300 300 299 297 296 295 295 295 295 294 294 293 292 290 289 290 289 288 288 288 286 284 283 282 282 281
303 300 299 300 300 301 301 299 299 297 296 296 296 295 294 293 292 291 291 291 291 290 290 290 290 290 288 286 287 286 285 284 283 282 281 281 281 280
297 296 296 296 296 295 293 293 294 293 293 292 291 291 289 289 289 289 288 288 287 287 285 283 282 282 282 283 283 283 282 282 281 281 280 280 279 279
292 291 291 292 292 292 291 290 289 289 288 287 285 285 285 285 286 284 283 283 283 282 281 281 280 280 280 280 279 280 281 280 279 279 279 279 279 279
290 288 288 288 287 287 287 287 286 286 286 285 284 283 282 281 281 280 280 281 281 280 279 279 279 279 280 280 280 280 279 279 278 278 277 278 279 278
290 289 286 285 284 283 284 284 283 282 281 281 280 280 280 279 279 279 279 280 280 279 278 278 277 278 279 280 279 279 279 277 277 277 277 277 277 278
287 284 283 282 281 281 280 280 280 279 278 278 278 278 278 278 278 278 278 277 277 278 277 277 277 276 276 275 276 276 276 277 276 276 276 276 276 278
282 281 280 279 278 278 277 277 277 277 277 277 277 277 276 276 276 276 276 276 275 276 276 276 276 275 274 274 274 275 276 276 276 276 276 276 277 278
278 278 277 277 276 276 276 275 275 275 275 275 275 276 275 275 274 274 274 274 274 274 274 274 274 274 274 274 275 275 275 275 276 276 276 276 276 278
275 275 275 275 275 274 274 274 274 274 274 274 274 274 273 273 272 272 272 272 273 273 273 273 273 273 274 274 274 275 275 275 275 276 275 276 276 276
274 274 274 274 273 273 273 273 272 272 273 272 272 272 271 271 271 271 271 271 271 271 272 272 271 272 273 274 274 274 274 274 275 274 274 274 275 276

GFSNE_850_thetae_099.txt.gz
Theta_e
324 324 323 321 321 323 322 323 323 320 321 321 321 320 320 320 320 320 320 319 317 316 314 314 314 315 317 316 317 317 317 317 317 317 316 316 317 316
324 323 323 320 322 322 323 322 321 322 322 322 322 321 320 321 321 321 320 319 318 318 317 317 317 317 317 317 317 318 318 318 317 317 316 316 317 317
325 323 322 320 320 322 322 322 321 321 321 321 321 321 321 322 321 320 319 317 316 315 315 316 317 317 318 317 317 317 319 319 319 318 317 318 318 319
324 323 323 321 320 323 322 321 320 319 321 321 320 319 320 319 318 318 317 316 316 317 317 318 319 319 319 318 318 319 319 320 320 320 319 319 319 319
323 322 322 320 321 323 321 320 320 318 317 316 317 318 317 315 315 315 314 314 315 317 319 319 319 320 319 319 319 320 320 321 320 320 319 318 318 318
322 323 321 321 322 321 319 318 319 318 316 317 316 316 315 313 313 313 312 316 318 319 320 320 320 321 321 321 321 320 319 319 319 318 318 317 316 314
323 323 323 321 316 317 317 319 317 315 316 317 319 318 315 313 313 314 313 319 320 321 320 321 321 320 319 319 319 318 318 318 316 316 314 313 312 309
322 320 317 319 320 319 318 317 317 317 316 315 314 315 314 313 315 315 318 319 321 320 319 318 319 317 316 314 314 313 313 312 312 310 307 305 303 300
319 319 319 320 320 317 317 319 318 318 318 318 316 316 318 317 316 319 319 318 319 317 316 315 314 313 311 309 307 306 304 303 302 300 298 296 295 295
320 320 320 320 320 318 318 317 317 317 317 317 318 316 316 316 317 317 316 315 314 312 311 308 309 307 305 304 301 300 297 296 294 293 292 293 293 292
319 320 318 319 319 318 319 319 319 318 317 317 317 316 315 315 314 313 312 310 309 306 305 304 303 301 300 298 297 295 293 293 292 291 291 291 291 289
317 318 318 317 318 318 317 315 314 312 310 311 308 306 305 304 304 305 305 303 302 302 301 298 297 296 295 294 293 292 290 290 289 287 286 285 283 283
314 312 312 310 313 312 311 309 307 305 302 302 301 301 299 298 299 298 298 297 296 296 295 294 294 293 292 290 290 289 287 286 284 283 283 282 282 281
304 303 301 302 302 304 304 303 302 301 300 299 298 297 295 294 294 293 294 293 292 292 291 290 289 289 288 287 286 286 285 283 283 282 282 281 281 280
298 296 297 299 299 297 297 295 296 298 298 295 294 292 291 291 290 291 290 289 288 287 285 284 282 281 281 282 282 282 282 281 281 281 281 280 279 279
293 292 292 293 294 293 293 293 292 291 292 292 290 289 288 288 288 287 285 284 283 282 281 281 281 281 280 280 279 279 279 279 280 279 279 278 278 278
291 292 291 289 289 289 289 288 288 288 287 287 286 285 285 284 283 281 281 281 281 280 280 280 280 279 279 280 280 279 280 279 278 277 277 278 278 278
289 288 287 287 286 285 284 283 283 283 282 282 281 281 280 280 280 280 279 280 280 279 278 277 278 278 278 278 278 278 277 276 277 277 276 276 277 277
286 284 283 283 283 282 282 280 280 280 279 279 279 278 279 278 278 279 278 277 277 277 277 276 276 276 276 276 276 275 275 276 275 275 275 275 276 276
283 283 283 281 281 280 279 278 278 277 278 278 277 277 277 277 277 276 276 276 276 276 276 276 275 275 274 274 274 275 275 275 275 275 275 275 275 276
279 279 278 277 277 276 277 277 276 276 276 276 276 275 275 275 275 274 274 274 274 274 274 274 274 273 274 274 274 274 274 274 274 274 275 275 274 275
276 276 275 275 275 275 274 275 275 275 274 274 274 274 273 274 273 273 273 273 273 273 272 272 273 272 273 273 273 273 273 273 273 274 274 274 273 273
275 274 274 273 274 274 274 274 274 274 273 273 273 273 273 273 272 272 272 271 271 271 271 271 271 271 271 271 271 272 272 272 272 272 273 272 273 275

GFSNE_850_thetae_102.txt.gz
Theta_e
325 326 324 323 321 321 320 320 319 320 320 320 320 320 320 319 318 319 319 319 317 317 317 315 313 312 313 314 315 316 316 316 317 317 318 318 318 317
325 325 325 323 321 320 320 320 319 318 319 319 319 319 319 319 319 319 320 320 320 321 319 317 317 316 317 317 316 316 316 317 317 317 318 318 319 318
324 325 325 324 321 321 319 321 320 322 322 320 320 319 320 319 320 321 320 321 320 317 317 317 317 316 317 317 317 318 318 317 317 317 317 318 319 319
325 325 325 324 322 319 323 322 322 322 322 321 320 321 321 320 319 319 318 319 316 317 316 316 317 317 317 318 318 318 319 318 318 318 317 320 320 320
324 325 324 324 323 321 322 322 322 321 321 318 321 321 321 319 319 319 319 317 317 317 315 315 316 317 319 319 319 320 319 319 319 320 319 319 318 318
323 324 324 324 323 320 322 320 322 320 319 318 318 318 318 317 317 317 315 314 315 313 314 318 319 319 319 319 319 319 320 320 320 319 318 318 316 315
324 323 324 324 324 320 319 319 321 321 320 319 317 316 317 316 316 316 315 313 313 314 316 319 320 319 319 319 319 318 318 317 317 315 314 313 312 311
324 324 323 322 321 320 320 320 319 320 319 317 316 317 317 315 319 317 315 314 316 317 318 319 319 317 316 316 315 314 312 311 310 310 308 306 304 302
323 322 322 321 321 320 320 320 318 316 317 318 317 316 317 317 315 315 315 317 316 318 316 315 314 312 312 312 309 307 306 305 304 303 301 299 297 295
320 320 320 320 319 319 320 318 318 317 317 317 317 317 317 316 315 317 317 316 316 314 312 310 309 308 306 303 302 300 299 299 296 294 294 294 293 292
319 319 319 319 318 319 319 318 317 318 319 319 318 319 318 317 317 316 315 313 311 309 308 305 304 301 299 300 296 294 293 292 292 291 291 290 288 287
317 317 318 318 318 318 317 316 317 316 316 316 315 315 315 314 313 310 308 308 307 304 303 301 299 299 295 293 291 290 290 289 289 288 287 286 284 283
312 312 311 311 313 312 310 311 312 310 308 307 307 305 305 305 304 303 302 300 299 300 298 296 295 294 293 292 289 289 287 286 285 284 283 283 282 281
304 301 302 304 305 304 303 303 303 302 300 301 300 299 298 297 298 298 298 296 293 292 292 291 290 289 289 288 287 286 285 284 283 282 282 281 281 281
300 298 299 299 299 299 298 298 297 297 296 296 296 296 294 293 291 290 290 289 288 288 286 285 285 284 283 282 282 282 282 281 281 280 280 280 280 280
294 294 294 294 295 294 293 293 293 293 293 292 290 288 288 288 288 287 286 286 286 285 284 283 282 281 280 280 280 280 280 279 279 280 280 279 278 278
294 293 293 293 292 291 291 290 289 288 289 288 288 287 286 285 284 283 282 282 282 281 281 281 280 280 279 279 280 279 279 279 278 277 277 277 277 277
291 290 289 289 289 288 288 286 286 286 285 284 283 283 282 281 281 280 280 280 280 280 280 280 279 278 278 277 277 276 276 276 276 276 275 275 275 276
289 288 287 286 286 285 284 283 283 282 281 280 280 280 280 280 280 279 279 278 278 278 277 277 277 277 277 276 276 275 275 275 275 275 275 274 275 276
285 284 283 282 282 282 281 279 279 278 278 278 278 278 278 278 277 277 277 276 276 276 275 275 275 275 275 274 274 274 274 274 274 274 274 274 274 274
280 280 279 278 277 277 276 276 276 276 276 276 276 276 276 275 275 275 275 274 274 274 274 274 274 273 273 273 273 274 274 274 273 273 273 273 273 273
276 276 276 276 276 275 275 275 275 275 274 274 274 274 274 274 274 274 274 273 273 273 273 272 272 272 272 272 272 272 272 272 272 272 272 272 271 271
274 274 274 274 274 274 273 273 273 273 273 273 273 273 272 272 272 272 272 272 272 272 272 272 272 272 271 271 271 271 271 271 271 271 272 272 272 272

GFSNE_850_thetae_105.txt.gz
Theta_e
324 325 324 326 325 322 322 322 322 320 320 319 318 319 318 319 319 319 319 319 319 318 318 317 316 316 315 313 313 314 315 315 316 316 316 316 317 317
324 325 326 325 324 324 322 321 321 320 319 318 318 318 317 319 320 320 319 319 320 319 319 319 318 317 316 316 317 318 318 317 317 317 316 316 317 317
325 325 324 325 325 323 321 321 321 319 319 319 318 319 318 319 319 319 319 319 319 320 320 319 319 318 318 318 317 317 318 318 317 317 318 317 317 317
325 325 324 324 324 325 322 321 320 320 320 319 316 320 319 319 319 319 320 320 320 320 320 317 316 316 316 316 316 316 317 317 317 318 318 318 318 318
325 325 325 324 325 324 323 321 320 318 320 320 318 320 320 320 320 320 320 320 319 320 319 316 316 316 316 316 316 316 318 318 319 319 319 319 319 319
323 325 325 325 324 324 323 321 319 320 322 321 321 321 320 320 321 320 319 317 317 319 317 318 317 315 313 316 318 318 318 318 319 319 319 319 319 317
324 325 325 325 324 324 324 321 322 323 321 321 321 320 319 320 320 318 318 318 318 316 315 315 314 313 315 315 318 318 317 318 318 316 316 316 315 313
324 324 324 324 323 323 324 322 322 321 321 320 319 319 319 318 317 316 316 316 316 316 315 314 313 314 315 317 317 316 315 315 313 314 313 311 309 305
323 323 323 323 323 323 321 321 322 321 321 320 320 319 319 317 317 317 317 316 317 316 315 314 315 314 312 311 309 309 308 306 305 306 306 303 300 296
319 321 323 322 321 322 322 321 320 320 320 319 318 318 318 317 317 316 316 317 316 315 315 315 312 309 306 305 302 302 302 301 300 299 296 295 293 293
319 318 318 318 321 321 320 320 320 320 319 319 318 318 317 317 317 317 317 316 314 314 311 311 307 304 301 299 297 296 295 294 292 292 291 291 290 290
318 318 317 318 319 319 318 318 317 316 317 317 317 316 317 317 317 316 313 314 313 309 305 302 301 299 296 294 293 292 292 291 291 290 289 288 285 285
313 313 316 316 316 316 316 316 315 313 311 308 311 310 310 308 309 309 308 305 304 303 301 298 297 296 295 292 290 289 289 288 287 286 285 283 283 282
308 306 305 306 306 308 309 307 305 304 302 302 301 300 300 300 300 300 300 299 299 298 297 296 296 294 293 290 289 287 286 285 284 282 282 281 281 280
299 299 299 300 300 300 298 298 298 299 299 298 297 295 294 294 294 295 295 294 294 291 290 289 288 286 285 285 285 284 283 282 281 280 280 280 280 280
292 293 295 295 295 294 294 294 294 294 294 294 293 292 291 291 291 289 288 287 287 286 284 283 283 282 282 281 280 280 279 279 280 280 280 279 279 278
292 292 293 293 292 292 292 292 291 290 291 290 289 287 286 285 285 284 284 283 283 282 281 281 280 280 280 280 280 279 279 279 277 277 277 277 278 277
290 290 289 288 288 287 286 286 286 286 285 284 283 283 282 282 281 281 281 281 281 280 280 279 279 278 278 277 277 277 276 276 276 276 276 276 276 276
289 287 286 285 285 285 285 284 284 283 282 281 281 280 280 280 280 280 279 279 279 279 278 278 278 278 277 277 275 275 275 275 275 275 275 275 274 274
285 284 284 283 282 282 282 281 281 280 279 279 279 279 279 278 278 278 277 277 276 276 276 276 276 276 276 275 275 274 274 274 274 274 274 274 273 274
279 279 278 278 277 277 277 277 276 276 276 276 276 276 276 276 276 276 275 275 275 275 275 274 274 274 274 273 273 273 273 273 272 272 272 272 273 274
276 276 276 275 275 275 275 275 275 275 275 274 274 275 275 275 274 274 274 274 274 273 273 273 272 272 272 272 272 272 272 272 272 272 272 271 271 271
274 274 274 274 274 273 273 273 273 273 273 273 273 273 273 273 273 273 273 272 272 272 271 271 271 271 271 271 271 271 270 271 272 272 273 272 272 272

GFSNE_850_thetae_108.txt.gz
Theta_e
327 327 327 328 324 323 324 324 324 322 322 323 322 321 319 317 314 316 316 315 317 314 316 317 315 314 312 311 311 312 313 314 314 315 316 316 316 316
324 326 327 324 322 325 324 324 324 323 322 323 323 322 320 318 318 318 318 318 319 318 317 317 317 317 317 316 316 316 316 316 316 316 316 316 316 317
324 323 323 323 323 324 324 324 323 322 322 322 321 319 318 316 318 318 319 319 319 319 319 319 319 318 318 318 318 318 318 317 317 317 317 317 317 318
322 323 324 323 324 324 323 324 324 323 321 320 320 318 319 319 318 317 319 320 320 319 320 320 319 319 320 319 317 317 316 316 316 317 317 317 318 318
325 323 325 324 323 324 325 324 324 323 321 321 320 319 319 320 319 319 319 320 320 319 319 320 320 319 318 316 315 316 316 316 317 316 316 317 318 319
322 321 323 324 324 324 324 324 323 323 321 321 320 319 318 317 319 320 319 320 320 319 320 320 320 317 316 316 317 317 315 315 316 317 317 318 318 318
321 321 322 323 321 324 324 324 323 323 320 321 320 319 319 316 317 320 320 320 320 320 318 319 318 316 316 316 317 315 314 314 316 318 317 317 316 315
321 323 323 322 322 325 324 325 324 323 321 321 320 319 320 318 318 321 320 320 319 318 318 317 317 316 317 315 314 313 314 315 315 315 314 314 312 311
319 319 323 323 323 323 324 323 323 323 322 322 318 320 320 320 320 319 318 319 318 317 317 316 316 315 314 313 312 312 310 307 307 305 306 305 305 303
319 318 319 322 322 323 323 323 322 321 320 320 320 321 320 321 319 319 319 318 317 317 317 316 315 313 311 308 306 304 302 302 302 300 300 299 297 295
318 318 317 318 318 322 322 322 319 320 319 320 320 319 320 319 319 319 318 317 317 315 314 314 312 308 303 299 298 297 297 297 297 295 296 295 293 291
316 317 317 318 316 314 314 315 316 317 318 319 318 318 318 318 318 317 317 316 316 313 308 308 306 304 295 293 292 292 292 293 293 292 292 289 289 287
311 312 313 314 317 317 316 317 318 317 316 316 316 313 312 310 311 311 310 309 310 310 307 302 300 299 297 290 289 289 290 290 290 288 287 285 284 283
303 302 302 303 307 308 310 311 314 311 310 307 308 303 303 301 303 303 304 303 302 302 299 299 299 297 296 293 289 288 288 287 286 285 284 283 282 281
294 294 294 297 299 301 299 299 298 299 299 300 300 299 298 297 297 297 297 297 297 296 295 295 295 294 293 293 291 288 287 285 284 283 281 281 281 280
291 292 293 293 294 293 294 294 295 295 295 294 293 291 291 292 293 292 292 290 291 289 287 286 285 284 284 283 283 283 282 281 280 280 280 279 278 278
291 291 291 290 290 290 290 290 290 290 291 289 288 288 288 288 289 287 286 285 286 283 282 282 281 281 281 280 280 280 280 279 278 278 277 278 278 277
290 289 289 288 288 287 287 287 286 286 285 285 285 285 285 285 284 282 282 282 281 281 280 280 279 279 279 278 278 277 277 277 277 276 276 276 277 277
288 286 285 284 284 284 284 284 284 284 283 283 282 281 280 280 280 280 280 281 281 280 280 279 278 278 278 277 276 276 276 276 276 276 275 275 275 276
285 283 282 282 282 282 282 282 282 282 282 282 282 282 282 281 280 279 278 278 278 277 277 277 276 276 276 276 275 274 274 274 274 274 274 275 275 275
278 278 277 277 276 276 276 276 276 276 277 277 277 277 277 276 276 276 276 276 276 276 275 275 275 275 274 274 274 273 273 273 273 273 273 274 274 275
275 275 275 275 275 275 275 275 275 275 275 275 275 275 275 275 275 274 274 274 274 274 274 274 273 273 273 273 273 273 273 272 272 272 272 272 271 271
273 273 273 273 273 273 273 273 273 273 273 273 273 273 273 273 273 273 273 272 272 272 272 272 272 272 272 272 272 272 272 272 272 273 272 272 272 272

GFSNE_850_thetae_111.txt.gz
Theta_e
328 328 328 328 328 327 327 326 324 323 322 323 323 323 323 324 321 319 318 314 314 316 316 316 315 314 313 313 314 316 317 315 314 313 313 314 316 315
328 328 328 327 327 325 325 326 324 323 323 323 323 324 323 324 322 319 316 312 313 315 317 317 316 315 314 313 311 311 311 312 312 314 315 315 315 315
328 327 325 323 325 324 323 323 323 322 322 323 323 323 323 323 322 320 318 314 315 315 317 317 315 316 317 317 317 316 316 317 317 316 316 317 318 318
324 323 322 322 324 324 323 324 323 323 322 322 323 323 322 323 323 322 319 318 318 318 318 319 318 318 318 318 318 318 318 318 318 317 317 316 316 317
324 325 323 323 323 322 325 324 324 323 323 323 322 322 323 322 320 319 319 319 319 319 319 319 319 319 319 319 319 319 319 319 318 317 316 316 316 316
321 321 321 322 323 323 324 323 323 323 323 323 321 323 322 320 319 319 318 319 319 319 320 320 319 319 319 319 319 319 318 317 317 317 316 316 316 317
319 319 320 320 321 321 322 322 323 323 322 323 320 320 320 319 319 319 319 317 319 319 319 320 320 319 320 320 319 318 316 317 317 316 315 314 315 316
320 320 319 319 320 323 322 322 323 323 322 321 322 320 320 321 319 320 319 319 319 319 320 320 319 319 320 319 318 316 315 316 316 315 313 314 314 312
319 320 320 319 318 322 322 322 323 323 323 322 322 321 320 320 319 318 317 317 319 319 318 319 318 318 318 317 317 316 316 314 314 312 311 310 308 305
318 319 319 318 318 320 321 320 322 322 322 323 323 321 320 320 321 319 318 316 318 319 319 318 316 313 313 313 312 312 312 313 311 308 305 303 301 300
314 316 317 318 318 318 319 319 318 321 320 321 320 320 320 319 319 319 318 317 318 316 316 316 315 308 304 302 300 300 300 301 301 300 299 298 297 296
309 310 313 314 316 314 314 314 314 314 314 315 319 319 319 319 318 319 319 319 319 317 315 314 310 306 295 293 294 294 294 295 295 295 294 294 294 293
304 305 306 305 310 309 309 310 311 310 313 314 314 314 314 317 317 317 316 317 318 317 314 310 305 301 300 291 289 289 290 291 290 290 291 291 289 285
298 297 296 298 301 303 304 304 303 303 307 312 312 312 311 310 311 311 312 309 307 309 306 301 302 299 298 290 287 286 287 287 287 288 287 285 284 282
293 292 293 294 294 296 295 296 297 298 299 302 300 299 299 300 301 300 300 300 301 300 298 298 299 296 296 294 290 287 286 286 287 286 284 282 281 281
292 293 293 292 293 292 293 293 293 293 294 294 293 292 291 292 294 294 295 293 295 293 291 291 292 292 292 291 290 287 287 285 284 282 281 280 280 280
290 291 292 292 291 291 290 290 289 289 289 288 288 288 288 289 289 289 289 290 290 288 288 287 287 288 286 285 285 284 283 281 280 280 279 279 279 278
290 289 288 288 288 287 287 287 287 287 286 286 286 286 286 285 285 285 285 284 284 283 283 282 281 281 281 280 280 279 279 279 279 278 278 278 278 277
287 286 285 284 284 284 284 285 284 284 284 284 284 283 283 283 282 281 281 281 282 281 281 281 281 281 281 281 279 278 277 277 276 276 276 276 277 277
281 281 281 281 281 282 282 282 282 282 282 282 282 282 281 282 281 282 281 281 281 280 279 278 277 277 277 277 276 276 275 275 275 275 275 275 276 276
276 276 276 276 276 276 276 276 276 277 278 278 278 278 277 277 277 277 277 277 276 276 276 276 276 276 275 275 274 274 274 274 274 274 274 275 275 275
275 274 274 274 274 274 274 274 274 275 275 275 275 275 275 275 275 275 275 275 275 275 274 274 274 274 274 274 273 273 273 273 273 273 273 273 273 273
273 273 273 273 273 273 273 273 273 273 273 273 273 273 273 273 273 273 273 273 273 273 273 273 273 273 273 273 272 272 272 273 273 272 272 273 273 273

GFSNE_850_thetae_114.txt.gz
Theta_e
331 332 331 329 329 328 328 327 327 327 325 324 324 324 324 323 323 324 325 322 319 317 313 313 316 317 318 318 317 317 317 317 316 315 314 317 318 317
332 331 330 328 329 329 329 328 328 327 326 325 325 325 323 324 323 324 325 324 320 318 315 313 314 315 316 316 315 316 317 317 318 318 317 317 317 317
330 330 328 329 328 328 329 327 327 326 325 325 324 324 323 323 323 323 324 324 321 319 317 314 315 315 315 316 316 315 314 314 316 317 316 314 314 315
328 328 328 329 327 325 324 323 325 324 324 327 323 324 323 323 323 323 323 323 322 320 316 314 315 316 317 316 316 315 315 314 313 313 313 315 317 316
327 327 326 326 324 324 324 325 326 325 326 324 324 323 323 322 323 322 322 323 322 321 320 314 314 315 317 317 316 317 318 318 318 317 318 318 318 318
325 324 323 322 323 323 323 323 323 324 324 324 324 323 323 323 322 323 321 322 321 321 320 316 316 316 318 317 317 318 318 319 319 318 318 319 319 318
321 321 321 321 320 320 320 321 323 323 321 323 323 322 322 321 323 323 321 321 321 321 320 318 319 319 319 319 319 319 319 319 319 319 319 319 318 317
320 320 320 320 320 320 319 319 321 321 322 323 321 322 322 321 321 322 321 320 319 319 319 319 319 319 320 320 320 320 319 319 319 319 319 318 317 316
318 318 319 319 319 319 318 318 319 323 322 321 322 322 321 322 322 321 320 321 318 317 318 319 318 318 319 319 319 320 320 319 319 318 317 316 314 312
317 317 317 317 318 319 318 318 320 321 321 320 321 321 321 322 322 322 322 319 317 316 317 317 315 315 313 315 315 315 316 318 317 315 314 312 310 308
312 313 314 316 317 317 318 316 316 316 316 319 320 319 320 320 320 320 319 317 315 315 315 316 310 306 304 306 308 302 307 305 310 310 305 303 300 301
302 305 307 309 312 314 315 313 312 311 311 312 312 313 316 318 319 319 319 318 315 312 310 314 311 304 294 294 294 297 295 298 296 298 297 296 296 295
299 299 300 300 302 304 308 308 308 308 305 308 306 308 311 312 314 316 317 316 316 314 313 314 307 303 302 293 290 290 290 292 291 292 291 291 292 293
296 295 295 295 297 298 300 301 300 300 303 304 302 304 308 309 308 307 308 310 311 311 311 307 307 305 303 293 289 288 288 288 288 289 289 289 290 287
292 292 293 293 294 296 296 296 296 298 299 299 299 296 295 298 301 305 306 307 308 305 302 299 300 300 299 299 290 286 285 284 285 287 287 287 284 282
290 290 291 291 291 291 293 293 293 293 294 294 292 290 291 292 294 294 295 295 298 297 295 296 297 295 295 294 291 285 286 286 285 285 284 282 281 280
289 290 290 290 289 289 288 288 288 288 289 289 290 290 290 290 290 291 291 291 291 289 288 289 290 291 290 287 286 284 284 283 282 283 280 279 280 281
288 288 287 286 285 285 286 286 286 286 286 286 287 286 286 287 287 287 288 289 288 286 286 285 286 287 286 285 283 283 283 282 280 281 283 281 279 278
282 280 280 280 280 280 282 282 283 283 283 284 285 284 284 284 284 285 285 285 284 284 283 282 282 282 282 282 280 281 281 282 281 279 278 277 277 277
277 277 277 276 276 276 277 279 280 281 281 282 282 282 282 282 282 282 282 282 282 282 282 282 282 282 281 281 281 280 280 277 276 276 277 277 277 277
275 274 274 274 274 274 274 274 275 276 277 277 279 279 279 278 279 280 280 279 278 278 277 277 277 277 277 277 276 276 275 275 275 275 276 276 276 276
272 273 272 272 272 272 272 273 273 273 274 274 274 274 275 275 275 275 275 275 275 274 274 275 275 274 275 276 275 274 274 274 274 274 275 275 275 276
270 270 270 270 270 270 271 271 271 271 272 272 272 273 273 274 274 274 274 274 274 274 273 273 273 273 273 274 275 273 273 273 273 273 273 274 274 274

GFSNE_850_thetae_117.txt.gz
Theta_e
330 331 331 332 332 331 330 329 330 330 329 328 328 328 326 324 324 323 323 323 324 324 320 318 317 318 318 318 317 317 317 315 313 309 310 312 314 312
328 329 332 333 333 332 330 330 329 329 329 329 328 327 326 326 325 323 324 323 324 324 318 319 317 317 317 318 318 317 317 316 316 315 312 317 317 316
330 331 330 332 331 331 329 329 329 329 328 328 327 327 325 326 325 323 323 323 323 324 324 321 319 316 315 316 318 317 317 317 316 316 316 316 317 316
330 327 330 330 331 330 329 329 328 329 327 326 325 325 324 324 324 322 323 323 323 323 324 324 320 318 314 314 315 316 318 316 316 316 316 316 317 317
326 327 331 329 328 328 329 327 326 326 327 325 325 324 324 325 324 323 322 323 323 323 323 324 323 320 317 315 315 314 316 317 316 316 315 315 316 316
330 329 328 327 327 326 326 325 324 325 323 326 325 323 323 324 323 324 323 323 323 322 322 323 323 320 319 316 315 316 316 317 317 317 316 315 314 314
328 326 325 324 324 323 322 322 322 322 322 324 324 323 323 323 323 323 323 323 323 322 322 322 323 321 318 316 317 317 318 318 318 317 317 318 318 317
325 324 323 322 321 321 320 319 319 319 320 319 320 322 323 321 323 322 322 321 321 321 322 321 322 321 320 317 316 315 317 318 317 317 318 318 319 319
319 319 319 319 319 318 319 319 318 318 318 318 318 320 321 321 322 322 321 321 321 321 321 321 321 321 320 318 317 316 318 318 318 318 318 319 319 319
314 316 317 318 318 318 318 318 317 317 317 317 318 319 321 321 320 320 321 321 320 319 320 319 318 318 318 318 318 318 319 319 319 319 319 319 318 318
305 307 306 309 310 311 312 314 313 313 313 314 315 316 316 319 319 319 319 319 319 318 317 317 315 312 311 311 311 316 318 312 318 315 313 314 311 313
299 300 302 303 303 305 307 308 308 308 309 310 310 310 310 313 315 318 316 318 319 315 314 312 313 310 299 299 301 303 304 300 301 305 302 302 302 300
298 298 297 297 299 299 300 301 301 301 302 306 307 306 306 309 311 312 313 313 312 315 315 313 310 306 304 296 295 298 297 296 295 296 297 296 295 297
293 292 293 293 294 296 297 297 297 297 299 300 302 303 304 304 305 305 306 309 308 309 311 307 307 304 304 296 291 291 291 290 291 292 291 293 291 292
289 290 291 291 292 293 293 294 294 295 295 297 297 296 297 297 296 298 298 301 304 304 304 304 302 301 299 298 295 291 287 286 287 288 287 287 288 290
289 289 289 289 289 290 291 290 289 289 289 290 290 290 291 293 294 294 295 296 298 297 297 298 299 299 299 297 291 286 285 284 284 285 286 286 286 285
286 287 288 288 288 288 287 287 287 287 286 286 287 288 288 289 290 290 292 291 291 290 290 291 292 293 292 291 289 286 285 285 284 284 284 284 282 280
282 282 281 281 281 281 281 282 283 284 284 284 283 284 285 286 286 287 287 288 288 286 284 284 286 288 287 285 284 284 284 285 284 284 283 282 282 282
279 279 279 278 279 279 278 278 279 280 281 281 281 282 282 283 284 284 284 285 285 284 284 283 283 284 283 282 281 282 283 283 283 282 282 282 280 280
277 277 277 277 277 277 277 277 276 277 278 279 279 280 280 280 280 281 281 282 282 282 283 283 284 283 284 282 281 280 281 281 281 281 281 278 277 277
276 276 275 275 275 275 275 275 276 276 276 276 277 277 278 278 278 279 279 280 280 280 281 281 281 281 282 282 282 280 280 279 278 277 277 276 277 277
273 273 273 272 272 273 273 273 274 274 275 275 275 275 276 277 277 277 277 277 276 276 276 276 276 276 277 277 277 276 275 275 275 275 275 276 277 278
270 271 271 271 270 270 271 271 271 272 272 273 273 274 274 275 276 276 276 276 276 275 275 275 275 275 276 276 275 275 274 274 274 275 274 274 275 275

GFSNE_850_thetae_120.txt.gz
Theta_e
335 333 333 328 331 326 330 329 330 329 329 328 328 327 328 327 327 326 323 323 324 324 324 325 324 321 319 320 318 318 317 317 314 314 314 310 311 310
332 331 332 330 330 329 330 331 330 329 329 329 329 329 328 328 326 326 325 324 323 324 324 324 324 322 319 319 320 318 318 317 316 315 315 310 308 311
332 330 334 331 331 332 330 331 330 330 329 328 328 327 327 328 327 326 325 324 323 323 323 323 324 322 320 319 319 318 319 317 316 316 316 314 313 312
335 334 334 330 331 332 328 328 328 328 328 327 327 327 328 327 326 325 323 323 323 323 323 323 324 322 318 318 316 317 318 317 317 316 315 315 315 313
331 333 334 334 331 331 330 331 328 328 327 327 326 325 327 324 325 325 324 324 324 323 323 323 323 324 320 321 319 317 316 317 317 317 316 316 315 315
330 330 331 332 330 328 329 328 327 328 327 326 324 325 323 325 325 323 324 324 325 322 323 323 323 323 323 324 322 319 317 316 317 317 317 317 315 316
329 328 327 327 329 328 328 323 322 325 325 324 323 322 321 322 322 322 322 323 323 322 323 323 323 323 322 323 323 322 319 316 314 316 316 317 317 316
327 326 325 326 325 325 325 324 324 322 320 320 319 319 319 318 320 321 320 322 322 322 322 322 321 323 322 322 322 323 321 319 316 316 316 316 317 317
317 318 319 319 319 320 319 320 320 319 319 318 318 317 317 315 316 319 321 321 321 322 322 321 321 321 322 322 322 323 322 319 317 315 317 317 317 317
308 311 308 310 312 312 315 315 317 317 316 314 313 314 314 315 316 318 320 320 320 319 320 321 320 320 320 321 321 322 321 318 315 316 317 318 318 318
299 301 305 305 305 306 307 307 309 311 311 310 308 307 307 311 314 314 315 316 318 318 317 319 319 319 317 315 316 318 319 318 317 317 317 317 317 318
300 299 301 299 298 300 303 302 302 303 304 304 304 305 305 305 305 308 312 313 314 312 315 315 316 316 307 306 307 309 311 311 316 317 317 315 313 316
294 295 296 295 296 297 297 297 297 298 299 299 301 302 303 304 304 307 307 307 311 310 310 310 309 310 307 304 299 299 302 302 301 307 308 312 305 309
291 291 291 291 292 293 295 294 294 295 295 295 296 297 299 301 302 302 302 302 304 307 307 306 305 305 305 301 299 293 294 296 296 297 297 297 302 297
288 288 289 289 290 290 291 291 291 290 291 290 290 291 292 293 295 296 297 298 299 300 301 302 301 302 302 302 297 291 290 290 291 292 292 293 295 293
285 286 287 286 286 287 288 288 288 287 286 284 286 287 289 290 292 293 295 295 295 296 296 296 296 297 298 297 297 292 289 288 287 288 288 288 288 288
282 282 283 283 283 283 283 283 284 285 285 284 284 285 286 287 288 288 290 290 291 289 289 291 292 293 293 292 289 288 286 286 285 285 286 286 286 286
279 279 279 279 278 279 279 280 280 281 281 281 282 282 282 284 285 285 286 287 286 285 284 284 285 288 288 286 284 284 285 284 284 284 285 285 283 282
277 277 276 276 276 276 276 277 277 278 279 279 280 280 280 281 282 283 283 284 283 283 283 283 283 285 284 282 281 283 284 284 283 283 283 282 282 281
275 275 274 274 274 275 275 275 276 276 276 277 278 278 279 279 280 280 281 281 282 282 282 283 283 283 283 282 281 281 281 282 282 282 282 281 281 280
272 273 273 272 272 273 273 273 274 274 275 275 276 276 278 278 278 278 278 278 279 280 281 281 280 281 282 282 281 279 279 280 281 281 281 281 280 278
270 271 271 271 270 270 271 271 272 272 273 274 274 275 276 276 276 276 276 276 276 276 278 279 279 279 279 280 279 279 279 279 279 278 277 278 278 278
269 269 269 269 269 269 269 269 270 270 270 272 272 273 274 274 275 275 275 275 276 275 275 275 276 276 277 278 278 278 276 274 274 274 274 275 276 278

GFSNE_850_thetae_123.txt.gz
Theta_e
328 326 332 331 333 333 333 331 330 329 329 327 327 328 328 328 327 327 327 326 325 324 323 323 324 324 324 324 322 321 319 318 317 315 313 311 308 310
328 330 330 333 332 332 332 331 330 329 328 326 326 328 328 328 327 327 327 326 325 324 323 323 323 324 324 324 323 321 320 319 318 317 316 315 311 312
330 330 332 333 336 333 333 330 328 328 330 327 326 327 328 328 327 327 326 327 326 325 323 323 323 323 323 323 324 323 320 320 319 317 317 316 314 315
329 331 330 331 333 333 334 330 329 328 327 326 326 326 327 326 327 326 327 326 324 324 323 323 323 323 323 323 324 324 320 320 320 319 317 316 316 315
331 332 330 329 331 330 331 329 329 328 326 326 325 323 325 325 325 325 325 324 325 324 323 323 324 323 323 323 324 324 320 318 320 319 319 317 316 315
329 331 331 330 330 329 329 330 329 328 327 327 326 326 325 325 325 324 324 324 326 323 322 322 323 323 323 323 323 324 320 317 320 318 315 318 317 316
328 329 329 330 330 329 329 329 328 327 326 324 322 324 325 324 323 322 322 322 322 321 321 322 322 322 323 323 323 323 323 319 319 317 316 317 316 316
320 322 321 324 329 328 328 326 326 326 324 322 323 323 322 321 320 319 319 320 320 320 320 320 321 321 323 322 322 322 322 323 321 321 319 318 317 317
306 306 309 312 314 319 325 320 320 321 321 320 321 320 319 318 317 316 315 317 320 319 319 320 321 321 322 322 321 321 322 322 322 322 322 320 318 316
301 300 303 302 304 308 314 312 313 315 316 312 314 313 315 313 313 314 314 315 317 318 319 317 318 319 319 320 321 321 321 320 321 322 321 321 319 317
300 300 300 299 298 301 307 305 305 304 303 308 304 306 308 307 307 309 309 309 311 315 316 316 317 318 318 318 318 319 320 320 320 320 321 320 319 318
294 295 296 297 298 298 303 302 303 300 299 301 301 300 302 301 304 306 305 306 306 309 311 311 314 313 312 312 314 315 317 318 319 318 318 318 318 318
292 292 293 293 294 295 296 294 293 296 296 296 296 297 298 298 300 301 302 302 303 305 307 307 310 309 307 307 307 307 308 310 311 313 312 312 312 310
288 287 288 290 290 290 291 291 292 292 293 294 295 295 295 296 296 297 298 298 299 300 303 303 304 305 304 302 301 300 299 300 302 303 304 302 305 307
283 285 286 287 287 288 288 288 289 289 289 290 289 289 289 290 291 293 294 294 294 295 297 299 300 299 298 298 300 299 296 294 294 296 297 297 296 296
280 281 281 282 282 284 286 286 285 285 286 285 285 286 286 288 289 290 291 292 292 293 294 295 296 295 296 296 297 298 294 294 290 291 292 292 293 293
279 280 280 280 280 279 279 280 281 282 283 283 283 283 284 285 286 286 287 287 289 289 290 291 292 292 292 293 292 292 291 290 289 288 289 289 287 288
278 277 276 276 276 276 276 277 277 278 279 280 280 281 281 282 283 283 284 285 285 285 285 285 285 287 287 287 286 286 286 287 286 286 286 287 286 285
276 275 274 273 274 274 274 275 275 275 276 277 278 278 279 279 280 281 282 282 282 282 283 283 284 284 285 284 281 283 284 284 284 284 284 285 284 282
272 272 271 272 272 272 272 273 273 274 274 275 276 276 277 277 278 278 279 280 281 281 281 282 282 283 283 283 281 281 282 283 283 282 282 282 282 281
270 270 270 270 270 270 271 271 271 272 272 273 274 275 275 276 276 276 276 277 279 279 280 280 280 280 281 281 281 280 281 281 281 281 281 281 280 280
269 269 269 269 269 269 269 270 270 270 271 271 272 273 274 274 275 275 276 276 275 276 278 278 278 279 280 280 280 279 279 279 280 280 280 280 279 280
269 268 268 268 268 268 268 268 268 269 269 270 271 271 272 273 273 274 275 275 275 275 275 275 277 278 278 278 279 278 278 278 278 278 278 278 278 278

GFSNE_850_thetae_126.txt.gz
Theta_e
329 329 327 322 322 328 331 330 330 329 329 329 327 326 326 327 328 328 328 327 326 325 325 324 323 323 323 323 324 324 324 322 320 318 316 314 313 316
328 328 326 324 322 324 328 329 331 328 328 328 328 328 327 326 328 328 328 327 326 326 325 324 323 323 323 323 323 323 324 323 322 320 318 317 315 313
328 327 327 326 322 323 323 325 329 331 330 327 328 327 328 327 328 328 328 327 327 327 326 325 324 323 323 323 323 323 324 324 323 321 320 318 317 316
324 326 326 329 326 326 322 321 329 329 330 327 327 327 327 326 326 327 324 326 326 325 326 325 325 323 323 323 323 323 323 323 324 323 321 319 318 317
323 325 323 321 319 325 327 329 329 327 330 328 327 327 327 325 323 322 321 321 325 326 324 324 324 324 323 323 323 322 322 323 323 323 322 320 318 318
321 322 317 322 320 322 322 327 327 328 329 329 328 327 326 324 324 324 324 324 324 324 323 324 324 323 322 323 323 323 322 322 322 322 322 320 320 319
319 321 323 320 325 329 329 328 328 328 327 328 327 327 325 326 325 325 324 324 323 322 322 323 322 321 321 322 322 321 322 322 323 323 323 321 319 320
310 311 312 318 321 322 328 329 330 328 328 327 326 325 325 324 324 324 323 323 322 321 320 321 320 320 319 319 320 321 322 323 322 323 323 322 318 317
301 302 304 304 309 309 311 309 315 320 324 325 324 324 323 322 322 321 321 319 318 317 318 318 319 319 319 319 320 320 320 322 322 322 321 322 321 318
298 300 300 300 302 306 307 307 306 303 309 307 314 316 316 316 315 315 315 314 314 314 314 314 316 317 318 318 319 319 318 318 320 320 321 321 321 320
295 297 298 298 299 301 304 302 302 301 302 300 301 301 304 309 307 308 309 308 309 311 310 310 314 314 316 317 317 317 317 317 318 318 319 319 320 320
292 292 294 295 296 298 300 298 302 300 301 300 296 299 297 301 302 304 304 304 304 305 306 305 309 309 311 312 313 313 314 313 314 316 317 318 319 319
288 289 289 290 292 294 295 294 292 293 295 295 296 298 297 296 298 299 300 299 301 302 302 301 305 307 307 308 309 310 310 310 310 311 313 314 315 315
282 283 285 288 289 291 291 290 290 291 291 292 291 291 293 291 292 293 294 295 296 297 299 298 300 301 301 301 302 305 305 305 305 306 308 308 309 307
280 280 281 282 282 285 286 287 288 289 288 288 287 286 286 287 288 289 290 292 292 293 295 296 297 299 297 296 296 298 299 299 300 300 300 300 299 300
279 279 279 279 280 280 280 281 283 283 283 283 284 284 285 286 286 287 288 289 289 290 291 292 294 294 294 293 293 294 295 295 296 294 294 295 295 295
278 278 279 279 278 278 278 278 278 279 280 280 281 282 282 283 283 284 284 285 286 287 288 288 289 290 291 292 291 292 292 291 290 290 290 291 291 291
277 276 275 275 274 274 275 275 275 276 276 277 278 278 279 280 280 281 282 282 283 284 285 285 285 285 286 286 287 286 286 286 286 286 287 289 288 287
274 273 273 272 272 272 272 272 273 273 274 275 275 276 277 277 278 278 279 279 281 282 282 283 284 284 284 285 283 284 283 284 285 284 285 286 286 284
272 271 271 271 271 271 271 271 271 271 272 272 273 274 275 276 276 276 276 277 278 279 280 281 281 282 282 282 282 282 282 283 283 283 283 283 282 282
270 270 269 269 269 269 269 270 270 270 271 271 272 273 273 274 274 275 275 275 276 276 278 279 279 280 280 281 280 280 281 281 281 282 282 282 281 280
269 269 269 269 269 268 268 269 269 270 270 270 270 271 272 272 273 273 274 274 275 275 275 277 277 278 279 279 280 280 280 280 280 280 280 281 280 280
269 269 268 268 268 268 268 268 267 267 268 268 269 270 270 271 271 272 272 273 274 275 275 275 275 277 278 278 278 279 279 279 279 279 279 279 279 279

GFSNE_850_thetae_129.txt.gz
Theta_e
326 329 330 330 329 324 323 323 320 325 326 329 329 327 325 325 327 328 327 326 327 327 326 325 323 323 323 324 324 323 323 325 324 322 320 318 316 313
318 326 328 327 326 325 324 323 322 325 328 328 328 329 328 327 326 326 325 326 327 327 327 326 325 325 324 323 323 323 323 323 323 324 323 321 319 317
312 320 326 325 324 326 324 324 323 324 327 327 325 328 327 328 328 328 326 326 328 328 327 326 325 325 325 323 323 323 323 323 323 323 324 324 322 320
318 320 324 324 325 325 325 322 323 324 325 325 323 327 328 327 327 327 327 327 328 328 327 326 326 325 325 325 323 323 323 323 323 323 322 322 324 322
318 325 322 321 326 326 326 325 322 323 324 322 323 325 326 327 327 326 327 326 326 325 326 325 325 325 324 325 323 323 323 322 323 323 322 323 324 324
318 322 324 325 325 326 327 324 322 321 320 321 321 326 327 327 327 326 326 325 323 323 323 323 324 325 324 324 324 323 323 323 322 322 322 322 322 323
313 314 317 318 320 320 319 320 324 324 322 325 328 327 326 328 327 327 326 324 323 323 323 324 323 323 322 324 324 323 322 322 322 323 321 320 321 321
304 304 307 308 311 317 317 317 319 323 325 327 327 326 325 325 326 326 326 325 325 324 324 323 323 322 322 322 322 321 320 321 321 321 320 321 322 322
298 299 301 301 301 304 306 307 308 317 318 322 323 320 321 321 323 324 323 323 324 323 323 322 322 321 319 319 318 319 319 318 320 321 321 322 322 322
294 294 295 297 298 301 302 305 305 307 308 306 307 308 304 306 306 314 312 318 321 319 317 315 317 316 317 317 316 316 317 317 318 319 319 319 319 320
293 292 294 292 293 298 299 301 300 300 299 302 303 302 305 305 303 305 306 307 310 310 308 309 311 311 312 313 314 315 315 315 316 317 318 318 317 317
289 290 290 290 292 294 296 295 295 295 296 299 300 300 300 301 301 305 300 301 303 302 302 302 306 306 307 310 311 312 313 314 315 314 314 314 314 314
282 283 286 287 290 291 291 291 290 290 293 293 293 293 293 294 295 296 297 297 297 296 296 297 300 301 300 303 307 307 307 308 308 309 308 309 311 312
280 280 280 281 284 286 287 286 287 288 289 290 290 290 290 290 290 290 291 292 293 291 292 293 295 295 295 296 298 302 302 303 304 304 305 307 308 309
278 278 279 279 280 281 281 282 284 284 284 285 284 284 284 285 286 288 288 289 290 290 290 290 291 292 292 291 292 295 295 297 298 300 300 301 302 303
277 277 278 278 278 278 279 279 279 279 279 280 280 281 282 283 284 285 286 287 287 287 286 287 288 289 290 291 291 292 292 292 294 294 295 296 297 297
276 277 278 278 277 276 276 276 276 276 277 277 278 278 279 280 281 281 282 283 283 285 286 286 285 286 286 287 289 289 290 289 289 289 290 290 292 292
276 275 275 274 274 274 274 274 274 274 274 274 275 276 276 277 277 278 279 279 280 281 282 282 284 285 284 285 286 286 286 286 286 286 287 287 288 287
273 272 272 272 272 272 273 273 272 272 272 272 273 274 274 275 275 276 276 276 277 278 279 280 281 281 282 283 283 283 284 284 284 284 285 285 286 284
270 270 270 270 270 270 270 270 271 271 271 271 271 272 273 273 274 274 274 275 275 275 276 278 279 279 279 279 280 281 282 282 282 283 283 283 283 282
269 269 269 269 269 269 269 269 269 269 269 269 270 270 271 272 272 273 273 273 274 274 275 275 276 277 278 278 279 279 280 281 281 282 282 282 281 281
269 269 269 268 268 268 268 269 269 269 269 269 269 269 269 270 271 271 272 272 272 273 274 275 275 276 277 277 278 278 279 279 280 280 281 281 281 281
269 269 269 269 268 268 267 267 267 268 268 268 268 267 268 269 269 270 270 270 271 271 272 274 275 275 275 276 277 277 278 278 278 279 279 279 280 280

GFSNE_850_thetae_132.txt.gz
Theta_e
321 324 324 325 322 326 326 327 328 326 322 320 320 322 325 325 328 327 327 328 326 327 326 327 327 327 325 323 323 324 324 324 325 323 322 320 319 317
311 315 321 323 325 326 327 328 329 323 323 324 321 321 321 324 327 328 326 324 325 326 325 327 327 326 324 324 323 323 323 324 323 323 323 323 322 321
310 310 312 318 323 326 325 324 326 324 323 322 322 320 321 324 326 327 327 327 326 325 325 327 327 326 326 325 324 324 323 323 323 322 324 322 323 324
315 313 315 312 315 322 323 323 325 324 323 323 322 322 320 322 325 323 326 326 327 327 326 326 327 327 326 325 325 325 324 323 323 323 323 322 322 322
313 315 318 320 323 325 323 323 324 324 323 324 323 322 321 324 323 323 323 326 326 327 327 326 327 326 326 326 326 325 325 324 323 322 322 322 322 321
310 312 315 317 318 319 323 322 323 323 323 322 323 324 323 323 323 322 323 324 326 326 327 326 326 325 326 325 325 325 325 324 323 323 322 322 321 321
302 302 309 311 315 317 318 319 322 322 322 321 322 322 322 322 321 321 321 322 325 326 327 325 324 324 325 324 325 325 324 324 323 322 322 322 322 322
297 298 301 304 305 310 314 316 316 317 319 321 320 321 322 322 323 322 323 325 325 325 326 325 323 323 323 324 324 323 323 323 323 323 322 321 321 321
293 294 295 297 299 301 302 304 307 311 313 312 313 315 319 317 322 322 323 324 323 323 324 324 322 322 323 323 323 322 322 322 321 321 320 320 320 320
292 292 293 293 294 295 296 297 298 300 300 300 300 302 304 306 309 308 310 313 315 315 319 320 321 321 320 320 320 319 318 317 316 317 317 317 318 320
288 290 290 291 292 294 295 293 292 292 291 291 293 295 298 299 305 303 303 307 307 306 305 309 308 313 315 315 315 316 315 315 314 315 315 315 316 317
282 283 284 287 289 290 292 290 291 289 292 293 293 293 295 295 297 298 298 300 301 300 300 300 301 303 307 308 310 310 310 311 311 312 312 313 314 314
281 280 280 281 282 285 287 287 286 288 289 287 288 291 292 292 292 293 293 294 294 293 293 295 298 299 299 300 302 303 303 305 305 306 305 307 309 308
279 279 278 279 279 280 281 281 282 283 284 285 286 286 286 286 286 286 288 289 290 290 290 290 290 292 293 294 295 299 299 300 301 302 303 304 304 304
276 276 278 278 278 279 278 278 279 280 280 280 280 280 281 281 283 284 284 285 284 286 286 287 288 288 289 289 290 293 294 295 296 297 298 299 300 301
276 277 277 276 276 276 277 277 277 276 276 277 276 277 278 279 279 280 281 282 283 284 284 284 286 287 287 288 289 290 290 292 292 293 293 294 295 295
276 276 277 277 276 275 275 275 274 275 275 275 275 276 276 276 277 277 277 278 279 280 282 283 283 284 285 285 286 287 288 288 289 289 289 289 290 291
275 274 273 273 273 273 273 272 272 272 272 272 273 273 274 274 275 275 275 276 276 276 277 279 280 282 282 283 283 284 284 285 285 285 286 286 287 288
272 271 271 271 270 270 271 271 271 271 271 271 271 271 272 272 273 273 274 274 275 275 275 276 277 278 279 279 281 281 282 283 282 283 284 284 285 285
270 270 269 269 269 269 269 269 269 270 270 270 270 270 270 271 271 271 272 272 273 273 274 275 275 275 276 276 277 279 279 281 281 281 282 282 283 283
269 269 269 269 268 268 268 268 268 268 269 269 269 269 269 269 270 270 270 271 271 271 272 273 274 274 275 277 277 278 278 279 280 280 281 281 281 281
269 269 269 268 268 268 267 267 267 267 267 268 268 268 268 268 268 268 269 269 270 270 271 272 273 274 274 275 276 277 277 278 279 279 280 280 280 280
268 268 268 268 268 268 267 267 267 267 267 266 266 267 267 267 267 267 267 268 268 269 270 271 272 274 274 274 275 276 276 277 277 278 278 279 279 279